| time (UTC) | temp C | wind direction | speed KPH | gust KPH | rain 1hr cm | rain 24hr cm | rain mn cm | humidity % | barometer mb |
| 20260505041712 | 11 | 55 | 1.6 | 12.9 | 0.00 | 0.00 | 0.00 | 79 | 1012.6 |
| 20260505041556 | 11 | 37 | 4.8 | 12.9 | 0.00 | 0.00 | 0.00 | 79 | 1012.7 |
| 20260505041458 | 11 | 338 | 4.8 | 12.9 | 0.00 | 0.00 | 0.00 | 79 | 1012.6 |
| 20260505041421 | 11 | 32 | 1.6 | 8.0 | 0.00 | 0.00 | 0.00 | 79 | 1012.7 |
| 20260505041308 | 11 | 56 | 1.6 | 9.7 | 0.00 | 0.00 | 0.00 | 79 | 1012.6 |
| 20260505041211 | 11 | 62 | 0.0 | 17.7 | 0.00 | 0.00 | 0.00 | 79 | 1012.6 |
| 20260505041056 | 11 | 63 | 1.6 | 17.7 | 0.00 | 0.00 | 0.00 | 79 | 1012.7 |
| 20260505040958 | 11 | 37 | 3.2 | 17.7 | 0.00 | 0.00 | 0.00 | 78 | 1012.7 |
| 20260505040902 | 11 | 42 | 3.2 | 17.7 | 0.00 | 0.00 | 0.00 | 78 | 1012.7 |
| 20260505040805 | 11 | 46 | 1.6 | 17.7 | 0.00 | 0.00 | 0.00 | 78 | 1012.7 |
| 20260505040729 | 11 | 25 | 0.0 | 17.7 | 0.00 | 0.00 | 0.00 | 78 | 1012.7 |
| 20260505040555 | 11 | 30 | 4.8 | 17.7 | 0.00 | 0.00 | 0.00 | 78 | 1012.7 |
| 20260505040458 | 11 | 28 | 6.4 | 17.7 | 0.00 | 0.00 | 0.00 | 78 | 1012.7 |
| 20260505040421 | 11 | 353 | 4.8 | 19.3 | 0.00 | 0.00 | 0.00 | 78 | 1012.7 |
| 20260505040304 | 11 | 47 | 3.2 | 8.0 | 0.00 | 0.00 | 0.00 | 78 | 1012.7 |
| 20260505040228 | 11 | 18 | 1.6 | 12.9 | 0.00 | 0.00 | 0.00 | 78 | 1012.7 |
| 20260505040122 | 11 | 60 | 1.6 | 12.9 | 0.00 | 0.00 | 0.00 | 78 | 1012.7 |
| 20260505040007 | 11 | 49 | 0.0 | 12.9 | 0.00 | 0.00 | 0.00 | 77 | 1012.7 |
| 20260505035854 | 11 | 69 | 1.6 | 12.9 | 0.00 | 0.00 | 0.00 | 77 | 1012.7 |
| 20260505035758 | 11 | 70 | 1.6 | 12.9 | 0.00 | 0.00 | 0.00 | 77 | 1012.7 |
| 20260505035701 | 11 | 57 | 0.0 | 12.9 | 0.00 | 0.00 | 0.00 | 77 | 1012.6 |
| 20260505035606 | 11 | 57 | 0.0 | 12.9 | 0.00 | 0.00 | 0.00 | 77 | 1012.7 |
| 20260505035508 | 11 | 57 | 4.8 | 12.9 | 0.00 | 0.00 | 0.00 | 77 | 1012.7 |
| 20260505035355 | 11 | 37 | 3.2 | 16.1 | 0.00 | 0.00 | 0.00 | 77 | 1012.7 |
| 20260505035259 | 11 | 60 | 1.6 | 11.3 | 0.00 | 0.00 | 0.00 | 77 | 1012.7 |
| 20260505035202 | 11 | 74 | 1.6 | 11.3 | 0.00 | 0.00 | 0.00 | 76 | 1012.6 |
| 20260505035106 | 11 | 37 | 1.6 | 11.3 | 0.00 | 0.00 | 0.00 | 76 | 1012.6 |
| 20260505035008 | 11 | 47 | 1.6 | 11.3 | 0.00 | 0.00 | 0.00 | 76 | 1012.6 |
| 20260505034912 | 11 | 42 | 1.6 | 11.3 | 0.00 | 0.00 | 0.00 | 76 | 1012.6 |
| 20260505034759 | 11 | 20 | 1.6 | 12.9 | 0.00 | 0.00 | 0.00 | 76 | 1012.6 |
| 20260505034703 | 11 | 37 | 3.2 | 12.9 | 0.00 | 0.00 | 0.00 | 76 | 1012.5 |
| 20260505034607 | 11 | 49 | 4.8 | 12.9 | 0.00 | 0.00 | 0.00 | 76 | 1012.5 |
| 20260505034510 | 11 | 356 | 1.6 | 12.9 | 0.00 | 0.00 | 0.00 | 76 | 1012.5 |
| 20260505034434 | 11 | 51 | 1.6 | 12.9 | 0.00 | 0.00 | 0.00 | 75 | 1012.5 |
| 20260505034256 | 11 | 39 | 1.6 | 12.9 | 0.00 | 0.00 | 0.00 | 75 | 1012.5 |
| 20260505034200 | 11 | 33 | 1.6 | 12.9 | 0.00 | 0.00 | 0.00 | 75 | 1012.5 |
| 20260505034107 | 11 | 40 | 3.2 | 12.9 | 0.00 | 0.00 | 0.00 | 75 | 1012.5 |
| 20260505034009 | 11 | 47 | 4.8 | 14.5 | 0.00 | 0.00 | 0.00 | 75 | 1012.5 |
| 20260505033933 | 11 | 40 | 1.6 | 9.7 | 0.00 | 0.00 | 0.00 | 75 | 1012.5 |
| 20260505033816 | 11 | 57 | 1.6 | 9.7 | 0.00 | 0.00 | 0.00 | 74 | 1012.5 |
| 20260505033658 | 11 | 40 | 4.8 | 9.7 | 0.00 | 0.00 | 0.00 | 74 | 1012.5 |
| 20260505033603 | 11 | 46 | 4.8 | 12.9 | 0.00 | 0.00 | 0.00 | 74 | 1012.4 |
| 20260505033505 | 11 | 21 | 3.2 | 12.9 | 0.00 | 0.00 | 0.00 | 74 | 1012.4 |
| 20260505033433 | 11 | 52 | 1.6 | 12.9 | 0.00 | 0.00 | 0.00 | 74 | 1012.4 |
| 20260505033255 | 11 | 29 | 1.6 | 12.9 | 0.00 | 0.00 | 0.00 | 74 | 1012.4 |
| 20260505033159 | 11 | 32 | 3.2 | 12.9 | 0.00 | 0.00 | 0.00 | 74 | 1012.4 |
| 20260505033103 | 11 | 49 | 1.6 | 12.9 | 0.00 | 0.00 | 0.00 | 74 | 1012.4 |
| 20260505033005 | 11 | 326 | 0.0 | 12.9 | 0.00 | 0.00 | 0.00 | 74 | 1012.5 |
| 20260505032929 | 11 | 15 | 3.2 | 12.9 | 0.00 | 0.00 | 0.00 | 73 | 1012.5 |
| 20260505032755 | 11 | 15 | 3.2 | 12.9 | 0.00 | 0.00 | 0.00 | 73 | 1012.4 |
| 20260505032658 | 11 | 49 | 3.2 | 12.9 | 0.00 | 0.00 | 0.00 | 73 | 1012.4 |
| 20260505032602 | 12 | 8 | 3.2 | 12.9 | 0.00 | 0.00 | 0.00 | 73 | 1012.4 |
| 20260505032504 | 12 | 37 | 4.8 | 12.9 | 0.00 | 0.00 | 0.00 | 73 | 1012.4 |
| 20260505032408 | 12 | 337 | 4.8 | 12.9 | 0.00 | 0.00 | 0.00 | 73 | 1012.4 |
| 20260505032312 | 12 | 28 | 1.6 | 12.9 | 0.00 | 0.00 | 0.00 | 73 | 1012.4 |
| 20260505032159 | 12 | 62 | 4.8 | 12.9 | 0.00 | 0.00 | 0.00 | 73 | 1012.5 |
| 20260505032103 | 12 | 68 | 4.8 | 12.9 | 0.00 | 0.00 | 0.00 | 73 | 1012.4 |
| 20260505032026 | 12 | 18 | 0.0 | 12.9 | 0.00 | 0.00 | 0.00 | 73 | 1012.5 |
| 20260505031909 | 12 | 58 | 0.0 | 12.9 | 0.00 | 0.00 | 0.00 | 73 | 1012.5 |
| 20260505031832 | 12 | 69 | 1.6 | 12.9 | 0.00 | 0.00 | 0.00 | 73 | 1012.4 |
| 20260505031715 | 12 | 54 | 1.6 | 12.9 | 0.00 | 0.00 | 0.00 | 73 | 1012.4 |
| 20260505031557 | 12 | 41 | 1.6 | 11.3 | 0.00 | 0.00 | 0.00 | 73 | 1012.4 |
| 20260505031500 | 12 | 22 | 3.2 | 11.3 | 0.00 | 0.00 | 0.00 | 72 | 1012.5 |
| 20260505031408 | 12 | 32 | 1.6 | 11.3 | 0.00 | 0.00 | 0.00 | 72 | 1012.4 |
| 20260505031311 | 12 | 345 | 0.0 | 11.3 | 0.00 | 0.00 | 0.00 | 72 | 1012.5 |
| 20260505031154 | 12 | 59 | 1.6 | 11.3 | 0.00 | 0.00 | 0.00 | 72 | 1012.5 |
| 20260505031058 | 12 | 69 | 3.2 | 11.3 | 0.00 | 0.00 | 0.00 | 72 | 1012.5 |
| 20260505031000 | 12 | 49 | 4.8 | 12.9 | 0.00 | 0.00 | 0.00 | 72 | 1012.5 |
| 20260505030904 | 12 | 20 | 4.8 | 12.9 | 0.00 | 0.00 | 0.00 | 72 | 1012.5 |
| 20260505030831 | 12 | 42 | 3.2 | 12.9 | 0.00 | 0.00 | 0.00 | 72 | 1012.5 |
| 20260505030713 | 12 | 41 | 1.6 | 12.9 | 0.00 | 0.00 | 0.00 | 72 | 1012.5 |
| 20260505030557 | 12 | 57 | 0.0 | 12.9 | 0.00 | 0.00 | 0.00 | 72 | 1012.5 |
| 20260505030520 | 12 | 9 | 3.2 | 12.9 | 0.00 | 0.00 | 0.00 | 72 | 1012.5 |
| 20260505030403 | 12 | 8 | 3.2 | 12.9 | 0.00 | 0.00 | 0.00 | 72 | 1012.5 |
| 20260505030327 | 12 | 58 | 4.8 | 12.9 | 0.00 | 0.00 | 0.00 | 71 | 1012.5 |
| 20260505030209 | 12 | 57 | 6.4 | 12.9 | 0.00 | 0.00 | 0.00 | 71 | 1012.5 |
| 20260505030128 | 12 | 347 | 4.8 | 11.3 | 0.00 | 0.00 | 0.00 | 71 | 1012.5 |
| 20260505030012 | 12 | 46 | 3.2 | 11.3 | 0.00 | 0.00 | 0.00 | 71 | 1012.5 |
| 20260505025855 | 12 | 15 | 3.2 | 11.3 | 0.00 | 0.00 | 0.00 | 71 | 1012.5 |
| 20260505025759 | 12 | 8 | 1.6 | 11.3 | 0.00 | 0.00 | 0.00 | 71 | 1012.5 |
| 20260505025702 | 12 | 63 | 0.0 | 11.3 | 0.00 | 0.00 | 0.00 | 71 | 1012.5 |
| 20260505025627 | 12 | 72 | 1.6 | 11.3 | 0.00 | 0.00 | 0.00 | 71 | 1012.6 |
| 20260505025508 | 12 | 73 | 1.6 | 11.3 | 0.00 | 0.00 | 0.00 | 71 | 1012.6 |
| 20260505025416 | 12 | 34 | 3.2 | 11.3 | 0.00 | 0.00 | 0.00 | 71 | 1012.6 |
| 20260505025258 | 12 | 352 | 3.2 | 11.3 | 0.00 | 0.00 | 0.00 | 71 | 1012.6 |
| 20260505025201 | 12 | 38 | 1.6 | 11.3 | 0.00 | 0.00 | 0.00 | 70 | 1012.6 |
| 20260505025105 | 12 | 93 | 3.2 | 11.3 | 0.00 | 0.00 | 0.00 | 70 | 1012.6 |
| 20260505025028 | 12 | 347 | 3.2 | 11.3 | 0.00 | 0.00 | 0.00 | 70 | 1012.6 |
| 20260505024910 | 12 | 42 | 1.6 | 11.3 | 0.00 | 0.00 | 0.00 | 70 | 1012.6 |
| 20260505024757 | 12 | 49 | 1.6 | 11.3 | 0.00 | 0.00 | 0.00 | 70 | 1012.6 |
| 20260505024701 | 12 | 18 | 3.2 | 12.9 | 0.00 | 0.00 | 0.00 | 70 | 1012.6 |
| 20260505024605 | 12 | 30 | 4.8 | 12.9 | 0.00 | 0.00 | 0.00 | 70 | 1012.6 |
| 20260505024508 | 12 | 9 | 3.2 | 12.9 | 0.00 | 0.00 | 0.00 | 70 | 1012.6 |
| 20260505024411 | 12 | 34 | 1.6 | 12.9 | 0.00 | 0.00 | 0.00 | 69 | 1012.6 |
| 20260505024255 | 12 | 22 | 4.8 | 12.9 | 0.00 | 0.00 | 0.00 | 69 | 1012.6 |
| 20260505024218 | 12 | 62 | 6.4 | 12.9 | 0.00 | 0.00 | 0.00 | 69 | 1012.7 |
| 20260505024105 | 12 | 3 | 4.8 | 12.9 | 0.00 | 0.00 | 0.00 | 69 | 1012.7 |
| 20260505024027 | 12 | 351 | 4.8 | 12.9 | 0.00 | 0.00 | 0.00 | 69 | 1012.7 |
| 20260505023909 | 12 | 4 | 3.2 | 12.9 | 0.00 | 0.00 | 0.00 | 69 | 1012.7 |
| 20260505023813 | 12 | 37 | 0.0 | 12.9 | 0.00 | 0.00 | 0.00 | 69 | 1012.7 |
| 20260505023656 | 12 | 57 | 3.2 | 12.9 | 0.00 | 0.00 | 0.00 | 69 | 1012.6 |
| 20260505023559 | 12 | 25 | 4.8 | 12.9 | 0.00 | 0.00 | 0.00 | 68 | 1012.6 |
| 20260505023522 | 12 | 38 | 3.2 | 11.3 | 0.00 | 0.00 | 0.00 | 68 | 1012.6 |
| 20260505023409 | 12 | 37 | 1.6 | 14.5 | 0.00 | 0.00 | 0.00 | 68 | 1012.6 |
| 20260505023312 | 12 | 87 | 1.6 | 14.5 | 0.00 | 0.00 | 0.00 | 68 | 1012.6 |
| 20260505023216 | 12 | 28 | 3.2 | 14.5 | 0.00 | 0.00 | 0.00 | 68 | 1012.6 |
| 20260505023059 | 12 | 44 | 3.2 | 14.5 | 0.00 | 0.00 | 0.00 | 68 | 1012.7 |
| 20260505023002 | 12 | 44 | 3.2 | 14.5 | 0.00 | 0.00 | 0.00 | 68 | 1012.6 |
| 20260505022905 | 12 | 33 | 4.8 | 14.5 | 0.00 | 0.00 | 0.00 | 68 | 1012.6 |
| 20260505022813 | 12 | 98 | 4.8 | 14.5 | 0.00 | 0.00 | 0.00 | 68 | 1012.6 |
| 20260505022716 | 12 | 41 | 3.2 | 14.5 | 0.00 | 0.00 | 0.00 | 67 | 1012.7 |
| 20260505022559 | 12 | 47 | 1.6 | 16.1 | 0.00 | 0.00 | 0.00 | 67 | 1012.7 |
| 20260505022501 | 12 | 35 | 1.6 | 14.5 | 0.00 | 0.00 | 0.00 | 67 | 1012.7 |
| 20260505022405 | 12 | 32 | 1.6 | 14.5 | 0.00 | 0.00 | 0.00 | 67 | 1012.6 |
| 20260505022309 | 12 | 79 | 3.2 | 14.5 | 0.00 | 0.00 | 0.00 | 67 | 1012.7 |
| 20260505022156 | 12 | 48 | 8.0 | 14.5 | 0.00 | 0.00 | 0.00 | 67 | 1012.7 |
| 20260505022100 | 12 | 15 | 6.4 | 14.5 | 0.00 | 0.00 | 0.00 | 67 | 1012.7 |
| 20260505022002 | 12 | 44 | 6.4 | 14.5 | 0.00 | 0.00 | 0.00 | 67 | 1012.7 |
| 20260505021905 | 12 | 37 | 6.4 | 14.5 | 0.00 | 0.00 | 0.00 | 67 | 1012.6 |
| 20260505021809 | 12 | 337 | 3.2 | 14.5 | 0.00 | 0.00 | 0.00 | 67 | 1012.7 |
| 20260505021712 | 12 | 40 | 1.6 | 16.1 | 0.00 | 0.00 | 0.00 | 67 | 1012.6 |
| 20260505021601 | 12 | 56 | 3.2 | 17.7 | 0.00 | 0.00 | 0.00 | 66 | 1012.7 |
| 20260505021503 | 12 | 44 | 3.2 | 17.7 | 0.00 | 0.00 | 0.00 | 66 | 1012.7 |
| 20260505021407 | 12 | 4 | 3.2 | 17.7 | 0.00 | 0.00 | 0.00 | 66 | 1012.6 |
| 20260505021331 | 12 | 25 | 3.2 | 17.7 | 0.00 | 0.00 | 0.00 | 66 | 1012.6 |
| 20260505021212 | 12 | 18 | 3.2 | 17.7 | 0.00 | 0.00 | 0.00 | 66 | 1012.6 |
| 20260505021055 | 12 | 34 | 3.2 | 17.7 | 0.00 | 0.00 | 0.00 | 66 | 1012.6 |
| 20260505021018 | 12 | 125 | 3.2 | 17.7 | 0.00 | 0.00 | 0.00 | 66 | 1012.6 |
| 20260505020921 | 12 | 47 | 6.4 | 17.7 | 0.00 | 0.00 | 0.00 | 66 | 1012.5 |
| 20260505020806 | 12 | 32 | 6.4 | 19.3 | 0.00 | 0.00 | 0.00 | 66 | 1012.6 |
| 20260505020710 | 12 | 16 | 3.2 | 16.1 | 0.00 | 0.00 | 0.00 | 66 | 1012.6 |
| 20260505020614 | 12 | 54 | 3.2 | 16.1 | 0.00 | 0.00 | 0.00 | 65 | 1012.6 |
| 20260505020516 | 12 | 354 | 3.2 | 16.1 | 0.00 | 0.00 | 0.00 | 65 | 1012.6 |
| 20260505020358 | 12 | 94 | 3.2 | 16.1 | 0.00 | 0.00 | 0.00 | 65 | 1012.6 |
| 20260505020302 | 12 | 51 | 3.2 | 16.1 | 0.00 | 0.00 | 0.00 | 65 | 1012.6 |
| 20260505020210 | 12 | 16 | 3.2 | 16.1 | 0.00 | 0.00 | 0.00 | 65 | 1012.6 |
| 20260505020145 | 12 | 55 | 3.2 | 16.1 | 0.00 | 0.00 | 0.00 | 65 | 1012.6 |
| 20260505020009 | 13 | 70 | 6.4 | 16.1 | 0.00 | 0.00 | 0.00 | 65 | 1012.6 |
| 20260505015933 | 13 | 54 | 4.8 | 16.1 | 0.00 | 0.00 | 0.00 | 65 | 1012.5 |
| 20260505015755 | 13 | 37 | 1.6 | 14.5 | 0.00 | 0.00 | 0.00 | 64 | 1012.5 |
| 20260505015658 | 13 | 65 | 4.8 | 14.5 | 0.00 | 0.00 | 0.00 | 64 | 1012.6 |
| 20260505015602 | 13 | 37 | 8.0 | 14.5 | 0.00 | 0.00 | 0.00 | 64 | 1012.6 |
| 20260505015509 | 13 | 20 | 8.0 | 14.5 | 0.00 | 0.00 | 0.00 | 64 | 1012.6 |
| 20260505015412 | 13 | 14 | 4.8 | 14.5 | 0.00 | 0.00 | 0.00 | 64 | 1012.6 |
| 20260505015255 | 13 | 22 | 3.2 | 14.5 | 0.00 | 0.00 | 0.00 | 64 | 1012.6 |
| 20260505015159 | 13 | 68 | 1.6 | 14.5 | 0.00 | 0.00 | 0.00 | 64 | 1012.6 |
| 20260505015103 | 13 | 39 | 0.0 | 9.7 | 0.00 | 0.00 | 0.00 | 64 | 1012.6 |
| 20260505015027 | 13 | 34 | 3.2 | 16.1 | 0.00 | 0.00 | 0.00 | 64 | 1012.6 |
| 20260505014930 | 13 | 60 | 4.8 | 16.1 | 0.00 | 0.00 | 0.00 | 64 | 1012.6 |
| 20260505014756 | 13 | 336 | 4.8 | 16.1 | 0.00 | 0.00 | 0.00 | 63 | 1012.6 |
| 20260505014720 | 13 | 51 | 3.2 | 16.1 | 0.00 | 0.00 | 0.00 | 63 | 1012.6 |
| 20260505014604 | 13 | 42 | 1.6 | 16.1 | 0.00 | 0.00 | 0.00 | 63 | 1012.6 |
| 20260505014506 | 13 | 36 | 3.2 | 16.1 | 0.00 | 0.00 | 0.00 | 63 | 1012.7 |
| 20260505014409 | 13 | 30 | 4.8 | 16.1 | 0.00 | 0.00 | 0.00 | 63 | 1012.6 |
| 20260505014312 | 13 | 37 | 3.2 | 16.1 | 0.00 | 0.00 | 0.00 | 63 | 1012.6 |
| 20260505014159 | 13 | 71 | 3.2 | 16.1 | 0.00 | 0.00 | 0.00 | 63 | 1012.6 |
| 20260505014103 | 13 | 29 | 4.8 | 16.1 | 0.00 | 0.00 | 0.00 | 62 | 1012.6 |
| 20260505014005 | 13 | 57 | 8.0 | 16.1 | 0.00 | 0.00 | 0.00 | 62 | 1012.6 |
| 20260505013909 | 13 | 67 | 8.0 | 16.1 | 0.00 | 0.00 | 0.00 | 62 | 1012.6 |
| 20260505013812 | 13 | 44 | 4.8 | 16.1 | 0.00 | 0.00 | 0.00 | 62 | 1012.6 |
| 20260505013655 | 13 | 31 | 3.2 | 16.1 | 0.00 | 0.00 | 0.00 | 62 | 1012.6 |
| 20260505013604 | 13 | 29 | 3.2 | 16.1 | 0.00 | 0.00 | 0.00 | 62 | 1012.5 |
| 20260505013506 | 13 | 60 | 4.8 | 16.1 | 0.00 | 0.00 | 0.00 | 62 | 1012.5 |
| 20260505013410 | 13 | 345 | 3.2 | 16.1 | 0.00 | 0.00 | 0.00 | 62 | 1012.5 |
| 20260505013253 | 13 | 27 | 1.6 | 19.3 | 0.00 | 0.00 | 0.00 | 61 | 1012.5 |
| 20260505013157 | 13 | 86 | 4.8 | 19.3 | 0.00 | 0.00 | 0.00 | 61 | 1012.5 |
| 20260505013100 | 13 | 41 | 4.8 | 19.3 | 0.00 | 0.00 | 0.00 | 61 | 1012.4 |
| 20260505013007 | 13 | 13 | 3.2 | 19.3 | 0.00 | 0.00 | 0.00 | 61 | 1012.5 |
| 20260505012931 | 13 | 352 | 3.2 | 19.3 | 0.00 | 0.00 | 0.00 | 61 | 1012.4 |
| 20260505012813 | 13 | 74 | 4.8 | 19.3 | 0.00 | 0.00 | 0.00 | 61 | 1012.5 |
| 20260505012609 | 13 | 45 | 3.2 | 19.3 | 0.00 | 0.00 | 0.00 | 61 | 1012.4 |
| 20260505012511 | 13 | 36 | 4.8 | 20.9 | 0.00 | 0.00 | 0.00 | 60 | 1012.4 |
| 20260505012434 | 13 | 67 | 1.6 | 16.1 | 0.00 | 0.00 | 0.00 | 60 | 1012.4 |
| 20260505012321 | 13 | 31 | 4.8 | 16.1 | 0.00 | 0.00 | 0.00 | 60 | 1012.4 |
| 20260505012203 | 13 | 34 | 6.4 | 16.1 | 0.00 | 0.00 | 0.00 | 60 | 1012.3 |
| 20260505012107 | 13 | 22 | 3.2 | 17.7 | 0.00 | 0.00 | 0.00 | 60 | 1012.4 |
| 20260505012009 | 13 | 84 | 1.6 | 12.9 | 0.00 | 0.00 | 0.00 | 60 | 1012.3 |
| 20260505011913 | 13 | 53 | 4.8 | 12.9 | 0.00 | 0.00 | 0.00 | 60 | 1012.3 |
| 20260505011756 | 13 | 49 | 4.8 | 12.9 | 0.00 | 0.00 | 0.00 | 60 | 1012.3 |
| 20260505011704 | 13 | 57 | 3.2 | 12.9 | 0.00 | 0.00 | 0.00 | 60 | 1012.3 |
| 20260505011628 | 13 | 25 | 1.6 | 14.5 | 0.00 | 0.00 | 0.00 | 60 | 1012.3 |
| 20260505011529 | 13 | 70 | 1.6 | 14.5 | 0.00 | 0.00 | 0.00 | 59 | 1012.3 |
| 20260505011412 | 13 | 30 | 3.2 | 14.5 | 0.00 | 0.00 | 0.00 | 59 | 1012.3 |
| 20260505011255 | 13 | 1 | 1.6 | 14.5 | 0.00 | 0.00 | 0.00 | 59 | 1012.2 |
| 20260505011159 | 13 | 62 | 3.2 | 14.5 | 0.00 | 0.00 | 0.00 | 59 | 1012.2 |
| 20260505011123 | 13 | 25 | 3.2 | 14.5 | 0.00 | 0.00 | 0.00 | 59 | 1012.2 |
| 20260505011005 | 13 | 4 | 4.8 | 14.5 | 0.00 | 0.00 | 0.00 | 59 | 1012.2 |
| 20260505010912 | 13 | 11 | 6.4 | 14.5 | 0.00 | 0.00 | 0.00 | 59 | 1012.2 |
| 20260505010755 | 13 | 18 | 4.8 | 14.5 | 0.00 | 0.00 | 0.00 | 59 | 1012.2 |
| 20260505010658 | 13 | 47 | 4.8 | 14.5 | 0.00 | 0.00 | 0.00 | 58 | 1012.2 |
| 20260505010623 | 13 | 1 | 8.0 | 14.5 | 0.00 | 0.00 | 0.00 | 58 | 1012.2 |
| 20260505010505 | 13 | 68 | 4.8 | 14.5 | 0.00 | 0.00 | 0.00 | 58 | 1012.1 |
| 20260505010408 | 13 | 345 | 1.6 | 14.5 | 0.00 | 0.00 | 0.00 | 58 | 1012.1 |
| 20260505010255 | 13 | 29 | 3.2 | 16.1 | 0.00 | 0.00 | 0.00 | 58 | 1012.0 |
| 20260505010159 | 13 | 50 | 3.2 | 16.1 | 0.00 | 0.00 | 0.00 | 58 | 1012.0 |
| 20260505010113 | 13 | 53 | 4.8 | 16.1 | 0.00 | 0.00 | 0.00 | 58 | 1012.0 |
| 20260505005958 | 13 | 25 | 3.2 | 16.1 | 0.00 | 0.00 | 0.00 | 57 | 1012.0 |
| 20260505005922 | 14 | 358 | 3.2 | 16.1 | 0.00 | 0.00 | 0.00 | 57 | 1012.0 |
| 20260505005804 | 14 | 332 | 4.8 | 16.1 | 0.00 | 0.00 | 0.00 | 57 | 1012.0 |
| 20260505005708 | 14 | 76 | 4.8 | 16.1 | 0.00 | 0.00 | 0.00 | 57 | 1012.0 |
| 20260505005616 | 14 | 348 | 8.0 | 16.1 | 0.00 | 0.00 | 0.00 | 57 | 1012.0 |
| 20260505005458 | 14 | 29 | 6.4 | 19.3 | 0.00 | 0.00 | 0.00 | 57 | 1012.0 |
| 20260505005402 | 14 | 41 | 4.8 | 14.5 | 0.00 | 0.00 | 0.00 | 57 | 1011.9 |
| 20260505005305 | 14 | 46 | 6.4 | 14.5 | 0.00 | 0.00 | 0.00 | 57 | 1011.9 |
| 20260505005209 | 14 | 16 | 6.4 | 16.1 | 0.00 | 0.00 | 0.00 | 56 | 1011.9 |
| 20260505005112 | 14 | 33 | 4.8 | 14.5 | 0.00 | 0.00 | 0.00 | 56 | 1011.9 |
| 20260505004958 | 14 | 51 | 4.8 | 14.5 | 0.00 | 0.00 | 0.00 | 56 | 1011.9 |
| 20260505004902 | 14 | 33 | 4.8 | 17.7 | 0.00 | 0.00 | 0.00 | 56 | 1011.9 |
| 20260505004805 | 14 | 47 | 4.8 | 17.7 | 0.00 | 0.00 | 0.00 | 56 | 1011.8 |
| 20260505004709 | 14 | 35 | 3.2 | 17.7 | 0.00 | 0.00 | 0.00 | 56 | 1011.7 |
| 20260505004613 | 14 | 358 | 3.2 | 17.7 | 0.00 | 0.00 | 0.00 | 56 | 1011.8 |
| 20260505004516 | 14 | 347 | 1.6 | 19.3 | 0.00 | 0.00 | 0.00 | 55 | 1011.7 |
| 20260505004402 | 14 | 59 | 1.6 | 19.3 | 0.00 | 0.00 | 0.00 | 55 | 1011.7 |
| 20260505004305 | 14 | 69 | 3.2 | 19.3 | 0.00 | 0.00 | 0.00 | 55 | 1011.7 |
| 20260505004209 | 14 | 42 | 6.4 | 19.3 | 0.00 | 0.00 | 0.00 | 55 | 1011.6 |
| 20260505004133 | 14 | 88 | 4.8 | 19.3 | 0.00 | 0.00 | 0.00 | 55 | 1011.6 |
| 20260505003954 | 14 | 18 | 3.2 | 19.3 | 0.00 | 0.00 | 0.00 | 55 | 1011.6 |
| 20260505003857 | 14 | 13 | 3.2 | 19.3 | 0.00 | 0.00 | 0.00 | 55 | 1011.6 |
| 20260505003801 | 14 | 56 | 4.8 | 19.3 | 0.00 | 0.00 | 0.00 | 55 | 1011.6 |
| 20260505003729 | 14 | 69 | 6.4 | 19.3 | 0.00 | 0.00 | 0.00 | 55 | 1011.6 |
| 20260505003611 | 15 | 347 | 11.3 | 22.5 | 0.00 | 0.00 | 0.00 | 55 | 1011.6 |
| 20260505003453 | 15 | 18 | 3.2 | 20.9 | 0.00 | 0.00 | 0.00 | 54 | 1011.6 |
| 20260505003417 | 15 | 49 | 1.6 | 17.7 | 0.00 | 0.00 | 0.00 | 54 | 1011.5 |
| 20260505003259 | 15 | 70 | 1.6 | 17.7 | 0.00 | 0.00 | 0.00 | 54 | 1011.5 |
| 20260505003223 | 15 | 1 | 1.6 | 17.7 | 0.00 | 0.00 | 0.00 | 54 | 1011.4 |
| 20260505003107 | 15 | 27 | 3.2 | 17.7 | 0.00 | 0.00 | 0.00 | 54 | 1011.3 |
| 20260505003013 | 15 | 76 | 4.8 | 17.7 | 0.00 | 0.00 | 0.00 | 54 | 1011.3 |
| 20260505002857 | 15 | 49 | 3.2 | 17.7 | 0.00 | 0.00 | 0.00 | 54 | 1011.3 |
| 20260505002800 | 15 | 346 | 1.6 | 17.7 | 0.00 | 0.00 | 0.00 | 54 | 1011.3 |
| 20260505002703 | 15 | 32 | 4.8 | 17.7 | 0.00 | 0.00 | 0.00 | 54 | 1011.2 |
| 20260505002607 | 15 | 1 | 6.4 | 17.7 | 0.00 | 0.00 | 0.00 | 54 | 1011.2 |
| 20260505002510 | 15 | 34 | 4.8 | 19.3 | 0.00 | 0.00 | 0.00 | 53 | 1011.2 |
| 20260505002357 | 15 | 91 | 3.2 | 17.7 | 0.00 | 0.00 | 0.00 | 53 | 1011.2 |
| 20260505002300 | 15 | 43 | 6.4 | 17.7 | 0.00 | 0.00 | 0.00 | 53 | 1011.1 |
| 20260505002204 | 15 | 352 | 8.0 | 17.7 | 0.00 | 0.00 | 0.00 | 53 | 1011.1 |
| 20260505002109 | 15 | 8 | 6.4 | 17.7 | 0.00 | 0.00 | 0.00 | 53 | 1011.0 |
| 20260505002031 | 15 | 345 | 4.8 | 17.7 | 0.00 | 0.00 | 0.00 | 53 | 1011.0 |
| 20260505001853 | 15 | 35 | 4.8 | 17.7 | 0.00 | 0.00 | 0.00 | 52 | 1011.0 |
| 20260505001801 | 15 | 345 | 6.4 | 17.7 | 0.00 | 0.00 | 0.00 | 52 | 1011.0 |
| 20260505001704 | 15 | 39 | 6.4 | 17.7 | 0.00 | 0.00 | 0.00 | 52 | 1010.9 |
| 20260505001609 | 15 | 8 | 4.8 | 17.7 | 0.00 | 0.00 | 0.00 | 52 | 1010.9 |
| 20260505001511 | 15 | 13 | 1.6 | 24.1 | 0.00 | 0.00 | 0.00 | 51 | 1010.9 |
| 20260505001415 | 15 | 51 | 0.0 | 24.1 | 0.00 | 0.00 | 0.00 | 51 | 1010.8 |
| 20260505001318 | 15 | 62 | 1.6 | 24.1 | 0.00 | 0.00 | 0.00 | 51 | 1010.8 |
| 20260505001221 | 15 | 20 | 1.6 | 24.1 | 0.00 | 0.00 | 0.00 | 51 | 1010.8 |
| 20260505001103 | 15 | 21 | 1.6 | 24.1 | 0.00 | 0.00 | 0.00 | 50 | 1010.8 |
| 20260505001010 | 15 | 21 | 3.2 | 24.1 | 0.00 | 0.00 | 0.00 | 50 | 1010.8 |
| 20260505000913 | 15 | 20 | 4.8 | 24.1 | 0.00 | 0.00 | 0.00 | 50 | 1010.7 |
| 20260505000756 | 15 | 342 | 11.3 | 24.1 | 0.00 | 0.00 | 0.00 | 50 | 1010.7 |
| 20260505000700 | 15 | 25 | 9.7 | 24.1 | 0.00 | 0.00 | 0.00 | 50 | 1010.7 |
| 20260505000605 | 15 | 339 | 8.0 | 22.5 | 0.00 | 0.00 | 0.00 | 50 | 1010.7 |
| 20260505000507 | 15 | 105 | 6.4 | 22.5 | 0.00 | 0.00 | 0.00 | 50 | 1010.7 |
| 20260505000415 | 15 | 80 | 6.4 | 22.5 | 0.00 | 0.00 | 0.00 | 50 | 1010.7 |
| 20260505000257 | 15 | 30 | 4.8 | 20.9 | 0.00 | 0.00 | 0.00 | 50 | 1010.7 |
| 20260505000201 | 15 | 359 | 8.0 | 20.9 | 0.00 | 0.00 | 0.00 | 50 | 1010.6 |
| 20260505000117 | 15 | 45 | 11.3 | 20.9 | 0.00 | 0.00 | 0.00 | 50 | 1010.6 |
| 20260505000002 | 15 | 359 | 11.3 | 22.5 | 0.00 | 0.00 | 0.00 | 50 | 1010.6 |
| 20260504235905 | 15 | 79 | 6.4 | 22.5 | 0.00 | 0.00 | 0.00 | 50 | 1010.6 |
| 20260504235813 | 15 | 15 | 3.2 | 22.5 | 0.00 | 0.00 | 0.00 | 50 | 1010.6 |
| 20260504235716 | 16 | 37 | 4.8 | 22.5 | 0.00 | 0.00 | 0.00 | 50 | 1010.5 |
| 20260504235559 | 16 | 342 | 6.4 | 22.5 | 0.00 | 0.00 | 0.00 | 50 | 1010.5 |
| 20260504235501 | 16 | 30 | 6.4 | 22.5 | 0.00 | 0.00 | 0.00 | 50 | 1010.5 |
| 20260504235405 | 16 | 23 | 6.4 | 22.5 | 0.00 | 0.00 | 0.00 | 50 | 1010.5 |
| 20260504235308 | 16 | 33 | 8.0 | 22.5 | 0.00 | 0.00 | 0.00 | 49 | 1010.5 |
| 20260504235232 | 16 | 328 | 12.9 | 22.5 | 0.00 | 0.00 | 0.00 | 49 | 1010.5 |
| 20260504235100 | 16 | 59 | 8.0 | 22.5 | 0.00 | 0.00 | 0.00 | 49 | 1010.4 |
| 20260504235002 | 16 | 12 | 4.8 | 19.3 | 0.00 | 0.00 | 0.00 | 50 | 1010.5 |
| 20260504234905 | 16 | 83 | 6.4 | 19.3 | 0.00 | 0.00 | 0.00 | 49 | 1010.5 |
| 20260504234808 | 16 | 57 | 6.4 | 19.3 | 0.00 | 0.00 | 0.00 | 49 | 1010.5 |
| 20260504234712 | 16 | 19 | 6.4 | 17.7 | 0.00 | 0.00 | 0.00 | 49 | 1010.4 |
| 20260504234556 | 16 | 33 | 6.4 | 14.5 | 0.00 | 0.00 | 0.00 | 49 | 1010.5 |
| 20260504234502 | 16 | 338 | 6.4 | 17.7 | 0.00 | 0.00 | 0.00 | 49 | 1010.5 |
| 20260504234406 | 16 | 50 | 6.4 | 17.7 | 0.00 | 0.00 | 0.00 | 49 | 1010.5 |
| 20260504234309 | 16 | 37 | 3.2 | 17.7 | 0.00 | 0.00 | 0.00 | 49 | 1010.4 |
| 20260504234212 | 16 | 37 | 1.6 | 17.7 | 0.00 | 0.00 | 0.00 | 49 | 1010.4 |
| 20260504234056 | 16 | 57 | 6.4 | 17.7 | 0.00 | 0.00 | 0.00 | 49 | 1010.4 |
| 20260504233958 | 16 | 351 | 8.0 | 17.7 | 0.00 | 0.00 | 0.00 | 49 | 1010.3 |
| 20260504233905 | 16 | 28 | 6.4 | 17.7 | 0.00 | 0.00 | 0.00 | 49 | 1010.3 |
| 20260504233809 | 16 | 31 | 4.8 | 17.7 | 0.00 | 0.00 | 0.00 | 49 | 1010.3 |
| 20260504233713 | 16 | 18 | 3.2 | 20.9 | 0.00 | 0.00 | 0.00 | 48 | 1010.2 |
| 20260504233616 | 16 | 41 | 1.6 | 20.9 | 0.00 | 0.00 | 0.00 | 49 | 1010.2 |
| 20260504233458 | 16 | 36 | 1.6 | 20.9 | 0.00 | 0.00 | 0.00 | 48 | 1010.2 |
| 20260504233401 | 16 | 71 | 1.6 | 20.9 | 0.00 | 0.00 | 0.00 | 49 | 1010.2 |
| 20260504233309 | 16 | 76 | 3.2 | 20.9 | 0.00 | 0.00 | 0.00 | 48 | 1010.2 |
| 20260504233212 | 16 | 37 | 6.4 | 20.9 | 0.00 | 0.00 | 0.00 | 48 | 1010.1 |
| 20260504233056 | 16 | 51 | 6.4 | 20.9 | 0.00 | 0.00 | 0.00 | 48 | 1010.1 |
| 20260504232958 | 16 | 56 | 8.0 | 20.9 | 0.00 | 0.00 | 0.00 | 48 | 1010.1 |
| 20260504232922 | 16 | 38 | 9.7 | 22.5 | 0.00 | 0.00 | 0.00 | 48 | 1010.2 |
| 20260504232804 | 16 | 12 | 8.0 | 20.9 | 0.00 | 0.00 | 0.00 | 48 | 1010.1 |
| 20260504232728 | 16 | 50 | 8.0 | 20.9 | 0.00 | 0.00 | 0.00 | 48 | 1010.1 |
| 20260504232556 | 16 | 25 | 8.0 | 20.9 | 0.00 | 0.00 | 0.00 | 48 | 1010.1 |
| 20260504232458 | 16 | 32 | 6.4 | 20.9 | 0.00 | 0.00 | 0.00 | 48 | 1010.1 |
| 20260504232401 | 16 | 13 | 4.8 | 20.9 | 0.00 | 0.00 | 0.00 | 48 | 1010.0 |
| 20260504232305 | 16 | 106 | 4.8 | 20.9 | 0.00 | 0.00 | 0.00 | 48 | 1010.1 |
| 20260504232209 | 16 | 84 | 6.4 | 27.4 | 0.00 | 0.00 | 0.00 | 48 | 1010.1 |
| 20260504232112 | 16 | 39 | 8.0 | 27.4 | 0.00 | 0.00 | 0.00 | 48 | 1010.0 |
| 20260504232019 | 16 | 49 | 8.0 | 27.4 | 0.00 | 0.00 | 0.00 | 48 | 1010.1 |
| 20260504231901 | 16 | 360 | 3.2 | 27.4 | 0.00 | 0.00 | 0.00 | 48 | 1010.0 |
| 20260504231805 | 17 | 70 | 3.2 | 27.4 | 0.00 | 0.00 | 0.00 | 48 | 1010.0 |
| 20260504231708 | 17 | 4 | 6.4 | 27.4 | 0.00 | 0.00 | 0.00 | 48 | 1010.0 |
| 20260504231612 | 17 | 13 | 9.7 | 27.4 | 0.00 | 0.00 | 0.00 | 48 | 1009.9 |
| 20260504231454 | 17 | 40 | 9.7 | 27.4 | 0.00 | 0.00 | 0.00 | 48 | 1010.0 |
| 20260504231418 | 17 | 328 | 8.0 | 27.4 | 0.00 | 0.00 | 0.00 | 48 | 1010.0 |
| 20260504231304 | 17 | 349 | 4.8 | 16.1 | 0.00 | 0.00 | 0.00 | 48 | 1010.0 |
| 20260504231208 | 17 | 18 | 4.8 | 16.1 | 0.00 | 0.00 | 0.00 | 48 | 1009.9 |
| 20260504231112 | 17 | 10 | 6.4 | 16.1 | 0.00 | 0.00 | 0.00 | 47 | 1010.0 |
| 20260504231035 | 17 | 48 | 4.8 | 16.1 | 0.00 | 0.00 | 0.00 | 47 | 1009.9 |
| 20260504230856 | 17 | 32 | 6.4 | 16.1 | 0.00 | 0.00 | 0.00 | 47 | 1009.9 |
| 20260504230800 | 17 | 20 | 8.0 | 16.1 | 0.00 | 0.00 | 0.00 | 47 | 1009.9 |
| 20260504230708 | 17 | 65 | 11.3 | 16.1 | 0.00 | 0.00 | 0.00 | 47 | 1009.9 |
| 20260504230611 | 17 | 53 | 9.7 | 17.7 | 0.00 | 0.00 | 0.00 | 47 | 1009.8 |
| 20260504230453 | 17 | 8 | 6.4 | 16.1 | 0.00 | 0.00 | 0.00 | 47 | 1009.8 |
| 20260504230357 | 17 | 76 | 1.6 | 16.1 | 0.00 | 0.00 | 0.00 | 47 | 1009.8 |
| 20260504230300 | 17 | 46 | 0.0 | 16.1 | 0.00 | 0.00 | 0.00 | 47 | 1009.8 |
| 20260504230204 | 17 | 33 | 3.2 | 16.1 | 0.00 | 0.00 | 0.00 | 47 | 1009.8 |
| 20260504230122 | 17 | 31 | 4.8 | 16.1 | 0.00 | 0.00 | 0.00 | 47 | 1009.7 |
| 20260504230007 | 17 | 81 | 6.4 | 19.3 | 0.00 | 0.00 | 0.00 | 47 | 1009.8 |
| 20260504225910 | 17 | 81 | 6.4 | 19.3 | 0.00 | 0.00 | 0.00 | 47 | 1009.7 |
| 20260504225754 | 17 | 96 | 6.4 | 19.3 | 0.00 | 0.00 | 0.00 | 47 | 1009.8 |
| 20260504225657 | 17 | 13 | 4.8 | 24.1 | 0.00 | 0.00 | 0.00 | 47 | 1009.7 |
| 20260504225601 | 17 | 339 | 4.8 | 24.1 | 0.00 | 0.00 | 0.00 | 47 | 1009.7 |
| 20260504225507 | 17 | 350 | 4.8 | 24.1 | 0.00 | 0.00 | 0.00 | 47 | 1009.7 |
| 20260504225411 | 17 | 18 | 6.4 | 24.1 | 0.00 | 0.00 | 0.00 | 47 | 1009.7 |
| 20260504225314 | 17 | 307 | 8.0 | 24.1 | 0.00 | 0.00 | 0.00 | 47 | 1009.7 |
| 20260504225157 | 17 | 84 | 6.4 | 24.1 | 0.00 | 0.00 | 0.00 | 47 | 1009.7 |
| 20260504225101 | 17 | 118 | 3.2 | 24.1 | 0.00 | 0.00 | 0.00 | 47 | 1009.6 |
| 20260504225004 | 17 | 51 | 6.4 | 24.1 | 0.00 | 0.00 | 0.00 | 47 | 1009.6 |
| 20260504224907 | 17 | 51 | 8.0 | 25.7 | 0.00 | 0.00 | 0.00 | 47 | 1009.6 |
| 20260504224754 | 17 | 46 | 6.4 | 14.5 | 0.00 | 0.00 | 0.00 | 46 | 1009.5 |
| 20260504224658 | 17 | 345 | 6.4 | 14.5 | 0.00 | 0.00 | 0.00 | 46 | 1009.6 |
| 20260504224622 | 17 | 351 | 3.2 | 14.5 | 0.00 | 0.00 | 0.00 | 46 | 1009.6 |
| 20260504224503 | 17 | 360 | 1.6 | 16.1 | 0.00 | 0.00 | 0.00 | 46 | 1009.6 |
| 20260504224407 | 17 | 42 | 1.6 | 14.5 | 0.00 | 0.00 | 0.00 | 47 | 1009.6 |
| 20260504224310 | 17 | 30 | 1.6 | 14.5 | 0.00 | 0.00 | 0.00 | 47 | 1009.6 |
| 20260504224157 | 18 | 68 | 1.6 | 14.5 | 0.00 | 0.00 | 0.00 | 46 | 1009.6 |
| 20260504224122 | 18 | 42 | 1.6 | 14.5 | 0.00 | 0.00 | 0.00 | 46 | 1009.5 |
| 20260504224003 | 18 | 25 | 3.2 | 14.5 | 0.00 | 0.00 | 0.00 | 46 | 1009.5 |
| 20260504223907 | 18 | 51 | 4.8 | 16.1 | 0.00 | 0.00 | 0.00 | 46 | 1009.5 |
| 20260504223810 | 18 | 16 | 3.2 | 11.3 | 0.00 | 0.00 | 0.00 | 45 | 1009.5 |
| 20260504223653 | 18 | 6 | 1.6 | 16.1 | 0.00 | 0.00 | 0.00 | 45 | 1009.4 |
| 20260504223602 | 18 | 86 | 1.6 | 16.1 | 0.00 | 0.00 | 0.00 | 45 | 1009.5 |
| 20260504223504 | 18 | 42 | 3.2 | 16.1 | 0.00 | 0.00 | 0.00 | 45 | 1009.4 |
| 20260504223408 | 18 | 42 | 3.2 | 16.1 | 0.00 | 0.00 | 0.00 | 45 | 1009.5 |
| 20260504223312 | 18 | 75 | 3.2 | 16.1 | 0.00 | 0.00 | 0.00 | 45 | 1009.4 |
| 20260504223155 | 18 | 37 | 4.8 | 17.7 | 0.00 | 0.00 | 0.00 | 45 | 1009.4 |
| 20260504223058 | 18 | 360 | 3.2 | 20.9 | 0.00 | 0.00 | 0.00 | 45 | 1009.4 |
| 20260504223005 | 18 | 357 | 3.2 | 20.9 | 0.00 | 0.00 | 0.00 | 45 | 1009.4 |
| 20260504222908 | 18 | 43 | 4.8 | 20.9 | 0.00 | 0.00 | 0.00 | 45 | 1009.4 |
| 20260504222812 | 18 | 353 | 6.4 | 20.9 | 0.00 | 0.00 | 0.00 | 44 | 1009.4 |
| 20260504222655 | 18 | 12 | 6.4 | 20.9 | 0.00 | 0.00 | 0.00 | 44 | 1009.4 |
| 20260504222600 | 18 | 44 | 6.4 | 20.9 | 0.00 | 0.00 | 0.00 | 44 | 1009.4 |
| 20260504222502 | 18 | 359 | 8.0 | 20.9 | 0.00 | 0.00 | 0.00 | 44 | 1009.4 |
| 20260504222426 | 18 | 352 | 9.7 | 20.9 | 0.00 | 0.00 | 0.00 | 44 | 1009.3 |
| 20260504222312 | 18 | 35 | 8.0 | 20.9 | 0.00 | 0.00 | 0.00 | 44 | 1009.3 |
| 20260504222156 | 18 | 74 | 8.0 | 20.9 | 0.00 | 0.00 | 0.00 | 44 | 1009.4 |
| 20260504222120 | 18 | 25 | 9.7 | 20.9 | 0.00 | 0.00 | 0.00 | 43 | 1009.2 |
| 20260504222021 | 18 | 8 | 9.7 | 20.9 | 0.00 | 0.00 | 0.00 | 43 | 1009.3 |
| 20260504221904 | 18 | 59 | 11.3 | 22.5 | 0.00 | 0.00 | 0.00 | 43 | 1009.4 |
| 20260504221807 | 18 | 19 | 9.7 | 20.9 | 0.00 | 0.00 | 0.00 | 43 | 1009.2 |
| 20260504221655 | 18 | 351 | 8.0 | 19.3 | 0.00 | 0.00 | 0.00 | 43 | 1009.3 |
| 20260504221559 | 18 | 9 | 6.4 | 19.3 | 0.00 | 0.00 | 0.00 | 43 | 1009.3 |
| 20260504221522 | 18 | 323 | 8.0 | 22.5 | 0.00 | 0.00 | 0.00 | 43 | 1009.4 |
| 20260504221404 | 18 | 359 | 9.7 | 22.5 | 0.00 | 0.00 | 0.00 | 42 | 1009.3 |
| 20260504221308 | 19 | 6 | 6.4 | 22.5 | 0.00 | 0.00 | 0.00 | 42 | 1009.3 |
| 20260504221211 | 19 | 348 | 4.8 | 22.5 | 0.00 | 0.00 | 0.00 | 43 | 1009.4 |
| 20260504221055 | 19 | 67 | 4.8 | 22.5 | 0.00 | 0.00 | 0.00 | 42 | 1009.3 |
| 20260504221001 | 19 | 335 | 6.4 | 22.5 | 0.00 | 0.00 | 0.00 | 42 | 1009.3 |
| 20260504220904 | 19 | 11 | 6.4 | 22.5 | 0.00 | 0.00 | 0.00 | 42 | 1009.3 |
| 20260504220808 | 19 | 19 | 8.0 | 22.5 | 0.00 | 0.00 | 0.00 | 42 | 1009.2 |
| 20260504220712 | 19 | 23 | 6.4 | 25.7 | 0.00 | 0.00 | 0.00 | 42 | 1009.3 |
| 20260504220615 | 19 | 18 | 8.0 | 25.7 | 0.00 | 0.00 | 0.00 | 42 | 1009.3 |
| 20260504220457 | 19 | 13 | 9.7 | 25.7 | 0.00 | 0.00 | 0.00 | 42 | 1009.2 |
| 20260504220404 | 19 | 33 | 9.7 | 25.7 | 0.00 | 0.00 | 0.00 | 42 | 1009.4 |
| 20260504220308 | 19 | 29 | 9.7 | 25.7 | 0.00 | 0.00 | 0.00 | 42 | 1009.2 |
| 20260504220211 | 19 | 332 | 11.3 | 25.7 | 0.00 | 0.00 | 0.00 | 42 | 1009.2 |
| 20260504220126 | 19 | 23 | 8.0 | 25.7 | 0.00 | 0.00 | 0.00 | 42 | 1009.2 |
| 20260504220011 | 19 | 22 | 6.4 | 25.7 | 0.00 | 0.00 | 0.00 | 42 | 1009.2 |
| 20260504215915 | 19 | 58 | 8.0 | 25.7 | 0.00 | 0.00 | 0.00 | 42 | 1009.2 |
| 20260504215757 | 19 | 335 | 6.4 | 20.9 | 0.00 | 0.00 | 0.00 | 42 | 1009.2 |
| 20260504215705 | 19 | 19 | 9.7 | 20.9 | 0.00 | 0.00 | 0.00 | 42 | 1009.2 |
| 20260504215608 | 19 | 45 | 9.7 | 20.9 | 0.00 | 0.00 | 0.00 | 42 | 1009.2 |
| 20260504215511 | 19 | 349 | 9.7 | 20.9 | 0.00 | 0.00 | 0.00 | 41 | 1009.2 |
| 20260504215354 | 19 | 4 | 6.4 | 20.9 | 0.00 | 0.00 | 0.00 | 42 | 1009.2 |
| 20260504215258 | 19 | 360 | 8.0 | 20.9 | 0.00 | 0.00 | 0.00 | 42 | 1009.2 |
| 20260504215201 | 19 | 335 | 9.7 | 20.9 | 0.00 | 0.00 | 0.00 | 41 | 1009.2 |
| 20260504215109 | 19 | 95 | 8.0 | 19.3 | 0.00 | 0.00 | 0.00 | 41 | 1009.4 |
| 20260504215011 | 19 | 311 | 8.0 | 20.9 | 0.00 | 0.00 | 0.00 | 41 | 1009.2 |
| 20260504214855 | 19 | 77 | 9.7 | 20.9 | 0.00 | 0.00 | 0.00 | 41 | 1009.2 |
| 20260504214758 | 20 | 36 | 11.3 | 20.9 | 0.00 | 0.00 | 0.00 | 41 | 1009.2 |
| 20260504214702 | 20 | 106 | 9.7 | 20.9 | 0.00 | 0.00 | 0.00 | 40 | 1009.2 |
| 20260504214605 | 20 | 10 | 8.0 | 20.9 | 0.00 | 0.00 | 0.00 | 40 | 1009.1 |
| 20260504214512 | 20 | 25 | 8.0 | 20.9 | 0.00 | 0.00 | 0.00 | 40 | 1009.2 |
| 20260504214355 | 20 | 20 | 6.4 | 20.9 | 0.00 | 0.00 | 0.00 | 40 | 1009.2 |
| 20260504214319 | 20 | 29 | 6.4 | 20.9 | 0.00 | 0.00 | 0.00 | 40 | 1009.2 |
| 20260504214201 | 20 | 44 | 6.4 | 20.9 | 0.00 | 0.00 | 0.00 | 40 | 1009.1 |
| 20260504214106 | 20 | 354 | 4.8 | 25.7 | 0.00 | 0.00 | 0.00 | 40 | 1009.2 |
| 20260504214008 | 20 | 348 | 3.2 | 25.7 | 0.00 | 0.00 | 0.00 | 40 | 1009.3 |
| 20260504213855 | 20 | 44 | 4.8 | 25.7 | 0.00 | 0.00 | 0.00 | 40 | 1009.2 |
| 20260504213759 | 20 | 44 | 6.4 | 25.7 | 0.00 | 0.00 | 0.00 | 39 | 1009.2 |
| 20260504213702 | 20 | 311 | 8.0 | 25.7 | 0.00 | 0.00 | 0.00 | 39 | 1009.1 |
| 20260504213606 | 20 | 36 | 9.7 | 25.7 | 0.00 | 0.00 | 0.00 | 39 | 1009.1 |
| 20260504213508 | 20 | 335 | 9.7 | 25.7 | 0.00 | 0.00 | 0.00 | 39 | 1009.2 |
| 20260504213412 | 20 | 13 | 11.3 | 25.7 | 0.00 | 0.00 | 0.00 | 39 | 1009.1 |
| 20260504213259 | 20 | 33 | 8.0 | 29.0 | 0.00 | 0.00 | 0.00 | 39 | 1009.1 |
| 20260504213203 | 20 | 41 | 4.8 | 20.9 | 0.00 | 0.00 | 0.00 | 39 | 1009.1 |
| 20260504213108 | 20 | 49 | 6.4 | 20.9 | 0.00 | 0.00 | 0.00 | 39 | 1009.1 |
| 20260504213010 | 20 | 103 | 8.0 | 20.9 | 0.00 | 0.00 | 0.00 | 39 | 1009.1 |
| 20260504212913 | 20 | 29 | 9.7 | 20.9 | 0.00 | 0.00 | 0.00 | 39 | 1009.0 |
| 20260504212756 | 20 | 91 | 8.0 | 19.3 | 0.00 | 0.00 | 0.00 | 39 | 1009.1 |
| 20260504212703 | 20 | 15 | 9.7 | 24.1 | 0.00 | 0.00 | 0.00 | 39 | 1009.0 |
| 20260504212608 | 20 | 32 | 11.3 | 24.1 | 0.00 | 0.00 | 0.00 | 39 | 1009.0 |
| 20260504212510 | 20 | 343 | 12.9 | 25.7 | 0.00 | 0.00 | 0.00 | 39 | 1009.0 |
| 20260504212353 | 20 | 314 | 11.3 | 25.7 | 0.00 | 0.00 | 0.00 | 38 | 1009.1 |
| 20260504212257 | 20 | 63 | 8.0 | 25.7 | 0.00 | 0.00 | 0.00 | 38 | 1009.1 |
| 20260504212200 | 20 | 340 | 6.4 | 25.7 | 0.00 | 0.00 | 0.00 | 38 | 1009.0 |
| 20260504212108 | 20 | 49 | 8.0 | 25.7 | 0.00 | 0.00 | 0.00 | 38 | 1009.1 |
| 20260504212011 | 20 | 11 | 8.0 | 25.7 | 0.00 | 0.00 | 0.00 | 38 | 1009.0 |
| 20260504211854 | 20 | 86 | 6.4 | 25.7 | 0.00 | 0.00 | 0.00 | 38 | 1009.0 |
| 20260504211757 | 20 | 3 | 8.0 | 25.7 | 0.00 | 0.00 | 0.00 | 38 | 1009.0 |
| 20260504211721 | 20 | 41 | 11.3 | 25.7 | 0.00 | 0.00 | 0.00 | 37 | 1009.0 |
| 20260504211605 | 20 | 23 | 8.0 | 20.9 | 0.00 | 0.00 | 0.00 | 37 | 1009.0 |
| 20260504211511 | 20 | 21 | 6.4 | 19.3 | 0.00 | 0.00 | 0.00 | 37 | 1009.0 |
| 20260504211355 | 20 | 32 | 8.0 | 19.3 | 0.00 | 0.00 | 0.00 | 37 | 1008.9 |
| 20260504211258 | 20 | 70 | 8.0 | 19.3 | 0.00 | 0.00 | 0.00 | 36 | 1008.9 |
| 20260504211222 | 20 | 79 | 4.8 | 27.4 | 0.00 | 0.00 | 0.00 | 37 | 1009.0 |
| 20260504211104 | 20 | 51 | 4.8 | 27.4 | 0.00 | 0.00 | 0.00 | 36 | 1009.0 |
| 20260504211027 | 20 | 39 | 9.7 | 27.4 | 0.00 | 0.00 | 0.00 | 36 | 1009.0 |
| 20260504210909 | 21 | 46 | 8.0 | 27.4 | 0.00 | 0.00 | 0.00 | 35 | 1008.9 |
| 20260504210757 | 21 | 308 | 6.4 | 27.4 | 0.00 | 0.00 | 0.00 | 35 | 1008.9 |
| 20260504210700 | 21 | 38 | 9.7 | 27.4 | 0.00 | 0.00 | 0.00 | 35 | 1009.0 |
| 20260504210603 | 21 | 10 | 9.7 | 27.4 | 0.00 | 0.00 | 0.00 | 35 | 1009.0 |
| 20260504210506 | 21 | 48 | 11.3 | 27.4 | 0.00 | 0.00 | 0.00 | 35 | 1009.0 |
| 20260504210410 | 21 | 72 | 11.3 | 27.4 | 0.00 | 0.00 | 0.00 | 34 | 1008.9 |
| 20260504210313 | 21 | 5 | 6.4 | 19.3 | 0.00 | 0.00 | 0.00 | 34 | 1008.9 |
| 20260504210201 | 21 | 12 | 8.0 | 19.3 | 0.00 | 0.00 | 0.00 | 34 | 1009.0 |
| 20260504210115 | 21 | 59 | 9.7 | 22.5 | 0.00 | 0.00 | 0.00 | 34 | 1008.9 |
| 20260504210000 | 21 | 67 | 9.7 | 19.3 | 0.00 | 0.00 | 0.00 | 33 | 1008.9 |
| 20260504205924 | 21 | 343 | 8.0 | 19.3 | 0.00 | 0.00 | 0.00 | 33 | 1008.9 |
| 20260504205807 | 21 | 38 | 3.2 | 16.1 | 0.00 | 0.00 | 0.00 | 33 | 1008.8 |
| 20260504205710 | 21 | 349 | 1.6 | 16.1 | 0.00 | 0.00 | 0.00 | 32 | 1008.8 |
| 20260504205559 | 21 | 65 | 1.6 | 16.1 | 0.00 | 0.00 | 0.00 | 33 | 1008.9 |
| 20260504205501 | 21 | 67 | 3.2 | 16.1 | 0.00 | 0.00 | 0.00 | 33 | 1008.8 |
| 20260504205404 | 21 | 96 | 4.8 | 16.1 | 0.00 | 0.00 | 0.00 | 33 | 1008.8 |
| 20260504205308 | 21 | 69 | 1.6 | 17.7 | 0.00 | 0.00 | 0.00 | 33 | 1008.8 |
| 20260504205212 | 21 | 76 | 3.2 | 17.7 | 0.00 | 0.00 | 0.00 | 33 | 1008.8 |
| 20260504205116 | 21 | 25 | 4.8 | 17.7 | 0.00 | 0.00 | 0.00 | 33 | 1008.7 |
| 20260504204958 | 21 | 86 | 3.2 | 17.7 | 0.00 | 0.00 | 0.00 | 33 | 1008.8 |
| 20260504204905 | 21 | 44 | 1.6 | 17.7 | 0.00 | 0.00 | 0.00 | 33 | 1008.8 |
| 20260504204809 | 21 | 22 | 1.6 | 17.7 | 0.00 | 0.00 | 0.00 | 33 | 1008.8 |
| 20260504204712 | 21 | 103 | 1.6 | 17.7 | 0.00 | 0.00 | 0.00 | 33 | 1008.8 |
| 20260504204616 | 21 | 100 | 4.8 | 17.7 | 0.00 | 0.00 | 0.00 | 33 | 1008.8 |
| 20260504204457 | 21 | 40 | 6.4 | 17.7 | 0.00 | 0.00 | 0.00 | 32 | 1008.8 |
| 20260504204401 | 21 | 66 | 3.2 | 14.5 | 0.00 | 0.00 | 0.00 | 33 | 1008.9 |
| 20260504204308 | 21 | 57 | 4.8 | 14.5 | 0.00 | 0.00 | 0.00 | 33 | 1008.9 |
| 20260504204212 | 21 | 90 | 4.8 | 14.5 | 0.00 | 0.00 | 0.00 | 32 | 1008.9 |
| 20260504204055 | 21 | 58 | 4.8 | 16.1 | 0.00 | 0.00 | 0.00 | 33 | 1008.8 |
| 20260504203958 | 21 | 350 | 1.6 | 16.1 | 0.00 | 0.00 | 0.00 | 33 | 1008.9 |
| 20260504203901 | 21 | 30 | 1.6 | 16.1 | 0.00 | 0.00 | 0.00 | 33 | 1008.9 |
| 20260504203825 | 21 | 35 | 3.2 | 16.1 | 0.00 | 0.00 | 0.00 | 33 | 1008.8 |
| 20260504203728 | 21 | 46 | 4.8 | 16.1 | 0.00 | 0.00 | 0.00 | 33 | 1008.8 |
| 20260504203614 | 21 | 69 | 4.8 | 16.1 | 0.00 | 0.00 | 0.00 | 33 | 1008.8 |
| 20260504203456 | 21 | 29 | 6.4 | 17.7 | 0.00 | 0.00 | 0.00 | 33 | 1008.8 |
| 20260504203400 | 21 | 11 | 8.0 | 19.3 | 0.00 | 0.00 | 0.00 | 33 | 1008.8 |
| 20260504203303 | 21 | 33 | 11.3 | 19.3 | 0.00 | 0.00 | 0.00 | 33 | 1008.9 |
| 20260504203207 | 21 | 52 | 8.0 | 19.3 | 0.00 | 0.00 | 0.00 | 32 | 1008.9 |
| 20260504203112 | 21 | 57 | 4.8 | 19.3 | 0.00 | 0.00 | 0.00 | 32 | 1008.9 |
| 20260504203018 | 21 | 52 | 4.8 | 19.3 | 0.00 | 0.00 | 0.00 | 32 | 1008.8 |
| 20260504202900 | 21 | 39 | 4.8 | 19.3 | 0.00 | 0.00 | 0.00 | 33 | 1008.9 |
| 20260504202825 | 21 | 333 | 9.7 | 19.3 | 0.00 | 0.00 | 0.00 | 33 | 1008.9 |
| 20260504202728 | 21 | 37 | 9.7 | 19.3 | 0.00 | 0.00 | 0.00 | 32 | 1008.8 |
| 20260504202611 | 21 | 8 | 9.7 | 19.3 | 0.00 | 0.00 | 0.00 | 32 | 1008.9 |
| 20260504202514 | 21 | 9 | 6.4 | 14.5 | 0.00 | 0.00 | 0.00 | 32 | 1008.8 |
| 20260504202357 | 21 | 29 | 4.8 | 16.1 | 0.00 | 0.00 | 0.00 | 33 | 1008.9 |
| 20260504202300 | 21 | 56 | 4.8 | 16.1 | 0.00 | 0.00 | 0.00 | 33 | 1008.8 |
| 20260504202208 | 21 | 33 | 6.4 | 16.1 | 0.00 | 0.00 | 0.00 | 32 | 1008.8 |
| 20260504202111 | 21 | 35 | 4.8 | 16.1 | 0.00 | 0.00 | 0.00 | 32 | 1008.9 |
| 20260504201953 | 21 | 73 | 3.2 | 16.1 | 0.00 | 0.00 | 0.00 | 33 | 1008.9 |
| 20260504201857 | 21 | 16 | 4.8 | 16.1 | 0.00 | 0.00 | 0.00 | 32 | 1008.9 |
| 20260504201801 | 21 | 5 | 3.2 | 16.1 | 0.00 | 0.00 | 0.00 | 32 | 1008.9 |
| 20260504201704 | 21 | 49 | 6.4 | 24.1 | 0.00 | 0.00 | 0.00 | 32 | 1008.9 |
| 20260504201613 | 21 | 75 | 8.0 | 24.1 | 0.00 | 0.00 | 0.00 | 32 | 1009.0 |
| 20260504201455 | 21 | 129 | 6.4 | 24.1 | 0.00 | 0.00 | 0.00 | 32 | 1008.9 |
| 20260504201358 | 21 | 25 | 4.8 | 24.1 | 0.00 | 0.00 | 0.00 | 33 | 1009.0 |
| 20260504201302 | 21 | 33 | 4.8 | 24.1 | 0.00 | 0.00 | 0.00 | 32 | 1008.9 |
| 20260504201205 | 21 | 55 | 4.8 | 24.1 | 0.00 | 0.00 | 0.00 | 33 | 1008.9 |
| 20260504201110 | 21 | 105 | 4.8 | 24.1 | 0.00 | 0.00 | 0.00 | 32 | 1009.0 |
| 20260504200956 | 21 | 97 | 9.7 | 24.1 | 0.00 | 0.00 | 0.00 | 32 | 1008.9 |
| 20260504200900 | 21 | 74 | 11.3 | 24.1 | 0.00 | 0.00 | 0.00 | 32 | 1008.9 |
| 20260504200803 | 21 | 1 | 9.7 | 27.4 | 0.00 | 0.00 | 0.00 | 32 | 1008.9 |
| 20260504200726 | 21 | 57 | 6.4 | 20.9 | 0.00 | 0.00 | 0.00 | 32 | 1008.9 |
| 20260504200630 | 21 | 65 | 4.8 | 20.9 | 0.00 | 0.00 | 0.00 | 32 | 1009.0 |
| 20260504200511 | 21 | 33 | 6.4 | 20.9 | 0.00 | 0.00 | 0.00 | 32 | 1008.9 |
| 20260504200359 | 21 | 23 | 9.7 | 20.9 | 0.00 | 0.00 | 0.00 | 31 | 1009.0 |
| 20260504200302 | 21 | 39 | 8.0 | 20.9 | 0.00 | 0.00 | 0.00 | 31 | 1009.1 |
| 20260504200206 | 21 | 53 | 8.0 | 19.3 | 0.00 | 0.00 | 0.00 | 32 | 1008.9 |
| 20260504200120 | 21 | 59 | 9.7 | 19.3 | 0.00 | 0.00 | 0.00 | 31 | 1008.9 |
| 20260504200005 | 21 | 27 | 4.8 | 19.3 | 0.00 | 0.00 | 0.00 | 32 | 1008.9 |
| 20260504195908 | 21 | 26 | 4.8 | 19.3 | 0.00 | 0.00 | 0.00 | 32 | 1008.9 |
| 20260504195756 | 21 | 67 | 6.4 | 19.3 | 0.00 | 0.00 | 0.00 | 32 | 1008.9 |
| 20260504195659 | 21 | 45 | 3.2 | 20.9 | 0.00 | 0.00 | 0.00 | 32 | 1008.9 |
| 20260504195624 | 21 | 27 | 4.8 | 17.7 | 0.00 | 0.00 | 0.00 | 32 | 1008.8 |
| 20260504195505 | 21 | 40 | 8.0 | 17.7 | 0.00 | 0.00 | 0.00 | 32 | 1008.9 |
| 20260504195429 | 21 | 76 | 6.4 | 17.7 | 0.00 | 0.00 | 0.00 | 32 | 1008.9 |
| 20260504195312 | 21 | 105 | 4.8 | 17.7 | 0.00 | 0.00 | 0.00 | 32 | 1008.9 |
| 20260504195155 | 21 | 358 | 4.8 | 20.9 | 0.00 | 0.00 | 0.00 | 32 | 1009.0 |
| 20260504195103 | 21 | 83 | 6.4 | 20.9 | 0.00 | 0.00 | 0.00 | 32 | 1009.0 |
| 20260504195005 | 21 | 19 | 11.3 | 22.5 | 0.00 | 0.00 | 0.00 | 31 | 1009.0 |
| 20260504194928 | 21 | 8 | 8.0 | 22.5 | 0.00 | 0.00 | 0.00 | 31 | 1009.0 |
| 20260504194810 | 21 | 326 | 4.8 | 22.5 | 0.00 | 0.00 | 0.00 | 32 | 1009.1 |
| 20260504194734 | 21 | 46 | 6.4 | 22.5 | 0.00 | 0.00 | 0.00 | 32 | 1009.1 |
| 20260504194557 | 21 | 79 | 8.0 | 22.5 | 0.00 | 0.00 | 0.00 | 31 | 1009.0 |
| 20260504194500 | 21 | 340 | 6.4 | 22.5 | 0.00 | 0.00 | 0.00 | 31 | 1009.1 |
| 20260504194407 | 21 | 30 | 6.4 | 22.5 | 0.00 | 0.00 | 0.00 | 31 | 1009.1 |
| 20260504194310 | 21 | 357 | 9.7 | 22.5 | 0.00 | 0.00 | 0.00 | 31 | 1009.0 |
| 20260504194213 | 21 | 25 | 11.3 | 22.5 | 0.00 | 0.00 | 0.00 | 31 | 1009.0 |
| 20260504194057 | 21 | 10 | 8.0 | 22.5 | 0.00 | 0.00 | 0.00 | 31 | 1009.0 |
| 20260504193959 | 21 | 49 | 6.4 | 22.5 | 0.00 | 0.00 | 0.00 | 31 | 1009.1 |
| 20260504193902 | 21 | 68 | 6.4 | 22.5 | 0.00 | 0.00 | 0.00 | 31 | 1009.0 |
| 20260504193826 | 21 | 72 | 8.0 | 22.5 | 0.00 | 0.00 | 0.00 | 32 | 1009.0 |
| 20260504193713 | 21 | 33 | 11.3 | 22.5 | 0.00 | 0.00 | 0.00 | 32 | 1009.0 |
| 20260504193556 | 21 | 75 | 4.8 | 25.7 | 0.00 | 0.00 | 0.00 | 31 | 1009.0 |
| 20260504193458 | 21 | 46 | 1.6 | 17.7 | 0.00 | 0.00 | 0.00 | 32 | 1009.0 |
| 20260504193402 | 21 | 79 | 6.4 | 17.7 | 0.00 | 0.00 | 0.00 | 32 | 1009.0 |
| 20260504193306 | 21 | 338 | 9.7 | 17.7 | 0.00 | 0.00 | 0.00 | 31 | 1009.1 |
| 20260504193229 | 21 | 122 | 6.4 | 17.7 | 0.00 | 0.00 | 0.00 | 32 | 1009.0 |
| 20260504193057 | 21 | 49 | 4.8 | 16.1 | 0.00 | 0.00 | 0.00 | 32 | 1008.9 |
| 20260504192959 | 21 | 83 | 3.2 | 16.1 | 0.00 | 0.00 | 0.00 | 32 | 1009.1 |
| 20260504192903 | 21 | 82 | 1.6 | 16.1 | 0.00 | 0.00 | 0.00 | 31 | 1009.0 |
| 20260504192806 | 21 | 74 | 4.8 | 16.1 | 0.00 | 0.00 | 0.00 | 32 | 1008.9 |
| 20260504192710 | 21 | 17 | 4.8 | 16.1 | 0.00 | 0.00 | 0.00 | 31 | 1009.0 |
| 20260504192633 | 21 | 23 | 3.2 | 16.1 | 0.00 | 0.00 | 0.00 | 32 | 1009.0 |
| 20260504192459 | 21 | 49 | 8.0 | 20.9 | 0.00 | 0.00 | 0.00 | 31 | 1009.0 |
| 20260504192422 | 21 | 75 | 8.0 | 20.9 | 0.00 | 0.00 | 0.00 | 31 | 1008.9 |
| 20260504192305 | 21 | 77 | 3.2 | 20.9 | 0.00 | 0.00 | 0.00 | 32 | 1009.1 |
| 20260504192208 | 21 | 322 | 4.8 | 20.9 | 0.00 | 0.00 | 0.00 | 32 | 1009.0 |
| 20260504192112 | 21 | 26 | 6.4 | 20.9 | 0.00 | 0.00 | 0.00 | 31 | 1009.0 |
| 20260504191954 | 21 | 304 | 6.4 | 20.9 | 0.00 | 0.00 | 0.00 | 32 | 1009.1 |
| 20260504191858 | 21 | 9 | 8.0 | 20.9 | 0.00 | 0.00 | 0.00 | 31 | 1009.0 |
| 20260504191805 | 21 | 11 | 9.7 | 25.7 | 0.00 | 0.00 | 0.00 | 31 | 1009.0 |
| 20260504191709 | 21 | 90 | 8.0 | 25.7 | 0.00 | 0.00 | 0.00 | 31 | 1009.1 |
| 20260504191633 | 21 | 91 | 6.4 | 25.7 | 0.00 | 0.00 | 0.00 | 32 | 1009.0 |
| 20260504191454 | 21 | 81 | 8.0 | 25.7 | 0.00 | 0.00 | 0.00 | 31 | 1008.9 |
| 20260504191357 | 21 | 64 | 8.0 | 25.7 | 0.00 | 0.00 | 0.00 | 31 | 1009.0 |
| 20260504191301 | 21 | 70 | 6.4 | 25.7 | 0.00 | 0.00 | 0.00 | 31 | 1009.0 |
| 20260504191208 | 21 | 71 | 6.4 | 25.7 | 0.00 | 0.00 | 0.00 | 32 | 1009.0 |
| 20260504191113 | 21 | 56 | 9.7 | 25.7 | 0.00 | 0.00 | 0.00 | 31 | 1009.0 |
| 20260504190955 | 21 | 36 | 6.4 | 25.7 | 0.00 | 0.00 | 0.00 | 31 | 1009.1 |
| 20260504190859 | 21 | 78 | 8.0 | 24.1 | 0.00 | 0.00 | 0.00 | 32 | 1009.1 |
| 20260504190801 | 21 | 59 | 11.3 | 24.1 | 0.00 | 0.00 | 0.00 | 31 | 1009.0 |
| 20260504190705 | 21 | 94 | 11.3 | 22.5 | 0.00 | 0.00 | 0.00 | 30 | 1009.1 |
| 20260504190613 | 21 | 129 | 9.7 | 22.5 | 0.00 | 0.00 | 0.00 | 31 | 1008.9 |
| 20260504190455 | 21 | 53 | 8.0 | 22.5 | 0.00 | 0.00 | 0.00 | 31 | 1009.1 |
| 20260504190359 | 21 | 72 | 4.8 | 19.3 | 0.00 | 0.00 | 0.00 | 31 | 1009.1 |
| 20260504190303 | 21 | 33 | 4.8 | 19.3 | 0.00 | 0.00 | 0.00 | 32 | 1009.1 |
| 20260504190226 | 21 | 39 | 3.2 | 19.3 | 0.00 | 0.00 | 0.00 | 31 | 1009.0 |
| 20260504190119 | 21 | 56 | 4.8 | 19.3 | 0.00 | 0.00 | 0.00 | 31 | 1009.0 |
| 20260504190004 | 21 | 91 | 6.4 | 19.3 | 0.00 | 0.00 | 0.00 | 31 | 1009.1 |
| 20260504185912 | 21 | 28 | 4.8 | 20.9 | 0.00 | 0.00 | 0.00 | 31 | 1009.1 |
| 20260504185755 | 21 | 47 | 3.2 | 22.5 | 0.00 | 0.00 | 0.00 | 31 | 1009.2 |
| 20260504185659 | 21 | 93 | 6.4 | 22.5 | 0.00 | 0.00 | 0.00 | 31 | 1009.2 |
| 20260504185602 | 21 | 53 | 6.4 | 22.5 | 0.00 | 0.00 | 0.00 | 31 | 1009.3 |
| 20260504185525 | 21 | 12 | 4.8 | 22.5 | 0.00 | 0.00 | 0.00 | 31 | 1009.3 |
| 20260504185407 | 21 | 25 | 4.8 | 22.5 | 0.00 | 0.00 | 0.00 | 31 | 1009.3 |
| 20260504185315 | 21 | 75 | 4.8 | 22.5 | 0.00 | 0.00 | 0.00 | 31 | 1009.2 |
| 20260504185157 | 21 | 217 | 3.2 | 22.5 | 0.00 | 0.00 | 0.00 | 31 | 1009.3 |
| 20260504185102 | 21 | 11 | 6.4 | 22.5 | 0.00 | 0.00 | 0.00 | 31 | 1009.3 |
| 20260504185025 | 21 | 98 | 6.4 | 27.4 | 0.00 | 0.00 | 0.00 | 31 | 1009.3 |
| 20260504184907 | 21 | 73 | 3.2 | 27.4 | 0.00 | 0.00 | 0.00 | 31 | 1009.2 |
| 20260504184811 | 21 | 106 | 6.4 | 27.4 | 0.00 | 0.00 | 0.00 | 31 | 1009.3 |
| 20260504184714 | 21 | 61 | 6.4 | 27.4 | 0.00 | 0.00 | 0.00 | 31 | 1009.3 |
| 20260504184601 | 21 | 82 | 6.4 | 27.4 | 0.00 | 0.00 | 0.00 | 31 | 1009.2 |
| 20260504184503 | 21 | 56 | 6.4 | 27.4 | 0.00 | 0.00 | 0.00 | 31 | 1009.2 |
| 20260504184407 | 21 | 115 | 8.0 | 27.4 | 0.00 | 0.00 | 0.00 | 31 | 1009.2 |
| 20260504184310 | 21 | 72 | 9.7 | 27.4 | 0.00 | 0.00 | 0.00 | 31 | 1009.2 |
| 20260504184213 | 21 | 32 | 4.8 | 30.6 | 0.00 | 0.00 | 0.00 | 32 | 1009.3 |
| 20260504184057 | 21 | 62 | 3.2 | 25.7 | 0.00 | 0.00 | 0.00 | 32 | 1009.4 |
| 20260504184004 | 21 | 11 | 6.4 | 25.7 | 0.00 | 0.00 | 0.00 | 32 | 1009.4 |
| 20260504183908 | 21 | 352 | 4.8 | 25.7 | 0.00 | 0.00 | 0.00 | 31 | 1009.3 |
| 20260504183810 | 21 | 105 | 4.8 | 25.7 | 0.00 | 0.00 | 0.00 | 32 | 1009.4 |
| 20260504183653 | 21 | 66 | 8.0 | 25.7 | 0.00 | 0.00 | 0.00 | 31 | 1009.3 |
| 20260504183557 | 21 | 82 | 8.0 | 25.7 | 0.00 | 0.00 | 0.00 | 31 | 1009.4 |
| 20260504183459 | 21 | 108 | 8.0 | 25.7 | 0.00 | 0.00 | 0.00 | 32 | 1009.4 |
| 20260504183407 | 21 | 42 | 9.7 | 25.7 | 0.00 | 0.00 | 0.00 | 31 | 1009.3 |
| 20260504183310 | 21 | 67 | 11.3 | 27.4 | 0.00 | 0.00 | 0.00 | 31 | 1009.4 |
| 20260504183153 | 21 | 44 | 9.7 | 19.3 | 0.00 | 0.00 | 0.00 | 31 | 1009.4 |
| 20260504183057 | 21 | 32 | 8.0 | 19.3 | 0.00 | 0.00 | 0.00 | 31 | 1009.4 |
| 20260504183020 | 21 | 44 | 4.8 | 19.3 | 0.00 | 0.00 | 0.00 | 32 | 1009.4 |
| 20260504182944 | 21 | 65 | 4.8 | 19.3 | 0.00 | 0.00 | 0.00 | 32 | 1009.4 |
| 20260504182802 | 21 | 90 | 4.8 | 19.3 | 0.00 | 0.00 | 0.00 | 31 | 1009.3 |
| 20260504182710 | 21 | 60 | 6.4 | 19.3 | 0.00 | 0.00 | 0.00 | 33 | 1009.2 |
| 20260504182613 | 21 | 103 | 6.4 | 19.3 | 0.00 | 0.00 | 0.00 | 31 | 1009.4 |
| 20260504182456 | 21 | 63 | 8.0 | 19.3 | 0.00 | 0.00 | 0.00 | 31 | 1009.4 |
| 20260504182419 | 21 | 47 | 9.7 | 20.9 | 0.00 | 0.00 | 0.00 | 31 | 1009.3 |
| 20260504182304 | 21 | 103 | 4.8 | 17.7 | 0.00 | 0.00 | 0.00 | 31 | 1009.4 |
| 20260504182205 | 21 | 32 | 4.8 | 17.7 | 0.00 | 0.00 | 0.00 | 32 | 1009.4 |
| 20260504182109 | 21 | 65 | 4.8 | 17.7 | 0.00 | 0.00 | 0.00 | 32 | 1009.4 |
| 20260504181955 | 21 | 79 | 3.2 | 17.7 | 0.00 | 0.00 | 0.00 | 32 | 1009.5 |
| 20260504181859 | 21 | 79 | 3.2 | 17.7 | 0.00 | 0.00 | 0.00 | 32 | 1009.5 |
| 20260504181802 | 21 | 101 | 1.6 | 19.3 | 0.00 | 0.00 | 0.00 | 33 | 1009.5 |
| 20260504181706 | 21 | 88 | 6.4 | 19.3 | 0.00 | 0.00 | 0.00 | 32 | 1009.5 |
| 20260504181609 | 21 | 100 | 4.8 | 19.3 | 0.00 | 0.00 | 0.00 | 32 | 1009.5 |
| 20260504181532 | 20 | 91 | 3.2 | 19.3 | 0.00 | 0.00 | 0.00 | 32 | 1009.4 |
| 20260504181358 | 20 | 75 | 3.2 | 19.3 | 0.00 | 0.00 | 0.00 | 31 | 1009.5 |
| 20260504181302 | 20 | 41 | 4.8 | 19.3 | 0.00 | 0.00 | 0.00 | 31 | 1009.5 |
| 20260504181205 | 20 | 68 | 8.0 | 19.3 | 0.00 | 0.00 | 0.00 | 31 | 1009.5 |
| 20260504181110 | 21 | 47 | 11.3 | 19.3 | 0.00 | 0.00 | 0.00 | 31 | 1009.5 |
| 20260504181012 | 21 | 60 | 9.7 | 19.3 | 0.00 | 0.00 | 0.00 | 30 | 1009.6 |
| 20260504180856 | 21 | 1 | 3.2 | 32.2 | 0.00 | 0.00 | 0.00 | 31 | 1009.6 |
| 20260504180823 | 21 | 145 | 3.2 | 32.2 | 0.00 | 0.00 | 0.00 | 31 | 1009.5 |
| 20260504180705 | 21 | 65 | 6.4 | 32.2 | 0.00 | 0.00 | 0.00 | 31 | 1009.5 |
| 20260504180609 | 21 | 30 | 6.4 | 32.2 | 0.00 | 0.00 | 0.00 | 30 | 1009.6 |
| 20260504180512 | 21 | 71 | 3.2 | 32.2 | 0.00 | 0.00 | 0.00 | 32 | 1009.7 |
| 20260504180355 | 20 | 30 | 4.8 | 32.2 | 0.00 | 0.00 | 0.00 | 31 | 1009.7 |
| 20260504180259 | 20 | 42 | 8.0 | 32.2 | 0.00 | 0.00 | 0.00 | 31 | 1009.7 |
| 20260504180206 | 20 | 85 | 8.0 | 32.2 | 0.00 | 0.00 | 0.00 | 31 | 1009.8 |
| 20260504180121 | 20 | 111 | 8.0 | 32.2 | 0.00 | 0.00 | 0.00 | 31 | 1009.7 |
| 20260504180006 | 20 | 86 | 8.0 | 35.4 | 0.00 | 0.00 | 0.00 | 32 | 1009.7 |
| 20260504175909 | 20 | 80 | 8.0 | 27.4 | 0.00 | 0.00 | 0.00 | 31 | 1009.7 |
| 20260504175812 | 20 | 9 | 11.3 | 27.4 | 0.00 | 0.00 | 0.00 | 31 | 1009.7 |
| 20260504175655 | 20 | 345 | 9.7 | 27.4 | 0.00 | 0.00 | 0.00 | 31 | 1009.8 |
| 20260504175603 | 20 | 137 | 9.7 | 27.4 | 0.00 | 0.00 | 0.00 | 31 | 1009.8 |
| 20260504175506 | 20 | 86 | 6.4 | 27.4 | 0.00 | 0.00 | 0.00 | 32 | 1009.9 |
| 20260504175409 | 20 | 49 | 8.0 | 27.4 | 0.00 | 0.00 | 0.00 | 31 | 1009.8 |
| 20260504175313 | 20 | 15 | 11.3 | 27.4 | 0.00 | 0.00 | 0.00 | 31 | 1009.8 |
| 20260504175155 | 20 | 57 | 9.7 | 27.4 | 0.00 | 0.00 | 0.00 | 32 | 1009.8 |
| 20260504175059 | 20 | 78 | 9.7 | 30.6 | 0.00 | 0.00 | 0.00 | 32 | 1009.8 |
| 20260504175006 | 20 | 69 | 8.0 | 24.1 | 0.00 | 0.00 | 0.00 | 32 | 1009.7 |
| 20260504174910 | 20 | 33 | 8.0 | 24.1 | 0.00 | 0.00 | 0.00 | 31 | 1009.7 |
| 20260504174813 | 20 | 66 | 4.8 | 24.1 | 0.00 | 0.00 | 0.00 | 32 | 1009.8 |
| 20260504174656 | 20 | 136 | 3.2 | 24.1 | 0.00 | 0.00 | 0.00 | 31 | 1009.8 |
| 20260504174600 | 20 | 22 | 1.6 | 24.1 | 0.00 | 0.00 | 0.00 | 31 | 1009.8 |
| 20260504174502 | 20 | 80 | 3.2 | 24.1 | 0.00 | 0.00 | 0.00 | 31 | 1009.7 |
| 20260504174426 | 20 | 345 | 6.4 | 24.1 | 0.00 | 0.00 | 0.00 | 31 | 1009.7 |
| 20260504174313 | 20 | 98 | 9.7 | 24.1 | 0.00 | 0.00 | 0.00 | 30 | 1009.6 |
| 20260504174156 | 20 | 79 | 6.4 | 24.1 | 0.00 | 0.00 | 0.00 | 31 | 1009.7 |
| 20260504174101 | 20 | 177 | 8.0 | 24.1 | 0.00 | 0.00 | 0.00 | 31 | 1009.8 |
| 20260504174002 | 20 | 49 | 9.7 | 24.1 | 0.00 | 0.00 | 0.00 | 32 | 1009.7 |
| 20260504173906 | 20 | 105 | 8.0 | 25.7 | 0.00 | 0.00 | 0.00 | 32 | 1009.8 |
| 20260504173809 | 20 | 81 | 6.4 | 25.7 | 0.00 | 0.00 | 0.00 | 32 | 1009.7 |
| 20260504173717 | 20 | 57 | 4.8 | 25.7 | 0.00 | 0.00 | 0.00 | 32 | 1009.6 |
| 20260504173620 | 20 | 71 | 4.8 | 25.7 | 0.00 | 0.00 | 0.00 | 31 | 1009.5 |
| 20260504173522 | 20 | 342 | 6.4 | 25.7 | 0.00 | 0.00 | 0.00 | 31 | 1009.6 |
| 20260504173404 | 20 | 61 | 6.4 | 25.7 | 0.00 | 0.00 | 0.00 | 31 | 1009.6 |
| 20260504173307 | 20 | 30 | 8.0 | 25.7 | 0.00 | 0.00 | 0.00 | 31 | 1009.6 |
| 20260504173211 | 20 | 357 | 8.0 | 29.0 | 0.00 | 0.00 | 0.00 | 31 | 1009.6 |
| 20260504173055 | 20 | 64 | 11.3 | 29.0 | 0.00 | 0.00 | 0.00 | 32 | 1009.7 |
| 20260504173001 | 20 | 18 | 12.9 | 29.0 | 0.00 | 0.00 | 0.00 | 31 | 1009.6 |
| 20260504172904 | 20 | 119 | 8.0 | 29.0 | 0.00 | 0.00 | 0.00 | 31 | 1009.6 |
| 20260504172807 | 20 | 44 | 8.0 | 29.0 | 0.00 | 0.00 | 0.00 | 32 | 1009.6 |
| 20260504172711 | 20 | 21 | 8.0 | 29.0 | 0.00 | 0.00 | 0.00 | 31 | 1009.6 |
| 20260504172614 | 20 | 99 | 6.4 | 29.0 | 0.00 | 0.00 | 0.00 | 32 | 1009.6 |
| 20260504172456 | 20 | 328 | 9.7 | 29.0 | 0.00 | 0.00 | 0.00 | 32 | 1009.8 |
| 20260504172403 | 20 | 42 | 9.7 | 30.6 | 0.00 | 0.00 | 0.00 | 32 | 1009.6 |
| 20260504172307 | 20 | 23 | 8.0 | 27.4 | 0.00 | 0.00 | 0.00 | 32 | 1009.6 |
| 20260504172211 | 20 | 73 | 8.0 | 27.4 | 0.00 | 0.00 | 0.00 | 31 | 1009.5 |
| 20260504172114 | 20 | 231 | 9.7 | 27.4 | 0.00 | 0.00 | 0.00 | 32 | 1009.6 |
| 20260504171956 | 20 | 17 | 11.3 | 22.5 | 0.00 | 0.00 | 0.00 | 31 | 1009.7 |
| 20260504171900 | 20 | 4 | 9.7 | 24.1 | 0.00 | 0.00 | 0.00 | 31 | 1009.6 |
| 20260504171807 | 20 | 72 | 4.8 | 20.9 | 0.00 | 0.00 | 0.00 | 32 | 1009.5 |
| 20260504171711 | 20 | 113 | 6.4 | 20.9 | 0.00 | 0.00 | 0.00 | 32 | 1009.6 |
| 20260504171555 | 20 | 91 | 9.7 | 22.5 | 0.00 | 0.00 | 0.00 | 32 | 1009.6 |
| 20260504171458 | 20 | 37 | 4.8 | 19.3 | 0.00 | 0.00 | 0.00 | 31 | 1009.7 |
| 20260504171401 | 20 | 98 | 6.4 | 19.3 | 0.00 | 0.00 | 0.00 | 32 | 1009.8 |
| 20260504171326 | 20 | 173 | 6.4 | 19.3 | 0.00 | 0.00 | 0.00 | 32 | 1009.7 |
| 20260504171213 | 20 | 354 | 6.4 | 20.9 | 0.00 | 0.00 | 0.00 | 32 | 1009.7 |
| 20260504171056 | 20 | 79 | 6.4 | 20.9 | 0.00 | 0.00 | 0.00 | 33 | 1009.7 |
| 20260504170959 | 20 | 67 | 4.8 | 20.9 | 0.00 | 0.00 | 0.00 | 33 | 1009.6 |
| 20260504170902 | 20 | 354 | 4.8 | 32.2 | 0.00 | 0.00 | 0.00 | 33 | 1009.7 |
| 20260504170806 | 20 | 80 | 4.8 | 32.2 | 0.00 | 0.00 | 0.00 | 33 | 1009.7 |
| 20260504170709 | 19 | 82 | 1.6 | 32.2 | 0.00 | 0.00 | 0.00 | 32 | 1009.8 |
| 20260504170616 | 19 | 34 | 6.4 | 32.2 | 0.00 | 0.00 | 0.00 | 32 | 1009.7 |
| 20260504170458 | 20 | 29 | 11.3 | 32.2 | 0.00 | 0.00 | 0.00 | 32 | 1009.8 |
| 20260504170422 | 20 | 83 | 6.4 | 32.2 | 0.00 | 0.00 | 0.00 | 33 | 1009.9 |
| 20260504170304 | 20 | 44 | 4.8 | 32.2 | 0.00 | 0.00 | 0.00 | 32 | 1009.8 |
| 20260504170208 | 19 | 47 | 8.0 | 32.2 | 0.00 | 0.00 | 0.00 | 32 | 1009.8 |
| 20260504170123 | 19 | 59 | 9.7 | 32.2 | 0.00 | 0.00 | 0.00 | 32 | 1009.8 |
| 20260504160358 | 19 | 129 | 3.2 | 22.5 | 0.00 | 0.00 | 0.00 | 34 | 1010.5 |
| 20260504160301 | 19 | 9 | 4.8 | 22.5 | 0.00 | 0.00 | 0.00 | 33 | 1010.7 |
| 20260504160205 | 19 | 84 | 6.4 | 22.5 | 0.00 | 0.00 | 0.00 | 34 | 1010.6 |
| 20260504160140 | 19 | 60 | 8.0 | 22.5 | 0.00 | 0.00 | 0.00 | 34 | 1010.7 |
| 20260504151113 | 18 | 25 | 8.0 | 20.9 | 0.00 | 0.00 | 0.00 | 37 | 1011.2 |
| 20260504150955 | 18 | 23 | 9.7 | 20.9 | 0.00 | 0.00 | 0.00 | 38 | 1011.1 |
| 20260504150859 | 18 | 76 | 6.4 | 19.3 | 0.00 | 0.00 | 0.00 | 38 | 1011.1 |
| 20260504150803 | 18 | 42 | 6.4 | 19.3 | 0.00 | 0.00 | 0.00 | 38 | 1011.3 |
| 20260504150706 | 17 | 44 | 6.4 | 19.3 | 0.00 | 0.00 | 0.00 | 39 | 1011.2 |
| 20260504150614 | 17 | 113 | 6.4 | 19.3 | 0.00 | 0.00 | 0.00 | 38 | 1011.1 |
| 20260504150456 | 17 | 53 | 8.0 | 19.3 | 0.00 | 0.00 | 0.00 | 38 | 1011.1 |
| 20260504150419 | 17 | 170 | 9.7 | 19.3 | 0.00 | 0.00 | 0.00 | 38 | 1011.2 |
| 20260504150153 | 18 | 10 | 6.4 | 19.3 | 0.00 | 0.00 | 0.00 | 37 | 1011.2 |
| 20260504150129 | 18 | 41 | 6.4 | 19.3 | 0.00 | 0.00 | 0.00 | 37 | 1011.1 |
| 20260504141257 | 17 | 300 | 4.8 | 20.9 | 0.00 | 0.03 | 0.00 | 40 | 1011.8 |
| 20260504141201 | 17 | 57 | 3.2 | 16.1 | 0.00 | 0.03 | 0.00 | 41 | 1011.8 |
| 20260504141105 | 17 | 49 | 3.2 | 14.5 | 0.00 | 0.03 | 0.00 | 41 | 1011.8 |
| 20260504141011 | 17 | 130 | 3.2 | 14.5 | 0.00 | 0.03 | 0.00 | 40 | 1011.7 |
| 20260504140854 | 17 | 92 | 4.8 | 14.5 | 0.00 | 0.03 | 0.00 | 41 | 1011.8 |
| 20260504140758 | 17 | 117 | 4.8 | 14.5 | 0.00 | 0.03 | 0.00 | 40 | 1011.8 |
| 20260504140701 | 17 | 25 | 1.6 | 12.9 | 0.00 | 0.03 | 0.00 | 42 | 1011.8 |
| 20260504140606 | 17 | 41 | 0.0 | 12.9 | 0.00 | 0.03 | 0.00 | 42 | 1011.7 |
| 20260504140529 | 16 | 36 | 1.6 | 12.9 | 0.00 | 0.03 | 0.00 | 42 | 1011.8 |
| 20260504140431 | 16 | 86 | 3.2 | 12.9 | 0.00 | 0.03 | 0.00 | 42 | 1011.8 |
| 20260504140258 | 16 | 47 | 3.2 | 17.7 | 0.00 | 0.03 | 0.00 | 42 | 1011.9 |
| 20260504140201 | 16 | 56 | 3.2 | 17.7 | 0.00 | 0.03 | 0.00 | 42 | 1011.9 |
| 20260504140116 | 16 | 68 | 6.4 | 17.7 | 0.00 | 0.03 | 0.00 | 42 | 1011.9 |
| 20260504130759 | 14 | 72 | 3.2 | 14.5 | 0.00 | 0.03 | 0.00 | 46 | 1012.4 |
| 20260504130703 | 14 | 81 | 3.2 | 14.5 | 0.00 | 0.03 | 0.00 | 46 | 1012.5 |
| 20260504130606 | 14 | 58 | 1.6 | 16.1 | 0.00 | 0.03 | 0.00 | 47 | 1012.5 |
| 20260504130513 | 14 | 90 | 1.6 | 12.9 | 0.00 | 0.03 | 0.00 | 47 | 1012.5 |
| 20260504130356 | 14 | 70 | 1.6 | 12.9 | 0.00 | 0.03 | 0.00 | 47 | 1012.5 |
| 20260504130300 | 14 | 82 | 3.2 | 12.9 | 0.00 | 0.03 | 0.00 | 47 | 1012.5 |
| 20260504130203 | 14 | 70 | 3.2 | 12.9 | 0.00 | 0.03 | 0.00 | 46 | 1012.5 |
| 20260504130117 | 14 | 96 | 3.2 | 12.9 | 0.00 | 0.03 | 0.00 | 47 | 1012.5 |
| 20260504120302 | 11 | 19 | 3.2 | 17.7 | 0.00 | 0.03 | 0.03 | 52 | 1012.8 |
| 20260504120209 | 11 | 88 | 4.8 | 17.7 | 0.00 | 0.03 | 0.03 | 52 | 1012.7 |
| 20260504120144 | 11 | 117 | 4.8 | 17.7 | 0.00 | 0.03 | 0.03 | 52 | 1012.7 |
| 20260504110655 | 8 | 41 | 1.6 | 8.0 | 0.00 | 0.03 | 0.03 | 58 | 1012.6 |
| 20260504110623 | 8 | 73 | 1.6 | 8.0 | 0.00 | 0.03 | 0.03 | 57 | 1012.6 |
| 20260504110505 | 8 | 44 | 1.6 | 6.4 | 0.00 | 0.03 | 0.03 | 57 | 1012.6 |
| 20260504110429 | 8 | 55 | 1.6 | 6.4 | 0.00 | 0.03 | 0.03 | 57 | 1012.6 |
| 20260504110310 | 8 | 56 | 3.2 | 6.4 | 0.00 | 0.03 | 0.03 | 58 | 1012.6 |
| 20260504110214 | 8 | 84 | 1.6 | 6.4 | 0.00 | 0.03 | 0.03 | 58 | 1012.6 |
| 20260504110149 | 8 | 65 | 3.2 | 8.0 | 0.00 | 0.03 | 0.03 | 58 | 1012.6 |
| 20260504100515 | -17 | 0.0 | 0.0 | 0.00 | 0.03 | 0.03 | 1012.6 | ||
| 20260504100401 | -17 | 0.0 | 0.0 | 0.00 | 0.03 | 0.03 | 1012.6 | ||
| 20260504100305 | -17 | 0.0 | 0.0 | 0.00 | 0.03 | 0.03 | 1012.5 | ||
| 20260504100208 | -17 | 0.0 | 0.0 | 0.00 | 0.03 | 0.03 | 1012.6 | ||
| 20260504100143 | -17 | 0.0 | 0.0 | 0.00 | 0.03 | 0.03 | 1012.5 | ||
| 20260504090126 | 6 | 51 | 0.0 | 3.2 | 0.00 | 0.03 | 0.03 | 61 | 1012.4 |
| 20260504081907 | 7 | 68 | 0.0 | 0.0 | 0.00 | 0.03 | 0.03 | 58 | 1012.3 |
| 20260504081811 | 7 | 68 | 0.0 | 1.6 | 0.00 | 0.03 | 0.03 | 58 | 1012.3 |
| 20260504081658 | 7 | 68 | 0.0 | 1.6 | 0.00 | 0.03 | 0.03 | 58 | 1012.3 |
| 20260504081601 | 7 | 68 | 0.0 | 1.6 | 0.00 | 0.03 | 0.03 | 58 | 1012.2 |
| 20260504081504 | 7 | 68 | 0.0 | 1.6 | 0.00 | 0.03 | 0.03 | 59 | 1012.2 |
| 20260504081407 | 7 | 68 | 0.0 | 1.6 | 0.00 | 0.03 | 0.03 | 59 | 1012.2 |
| 20260504081311 | 7 | 68 | 0.0 | 1.6 | 0.00 | 0.03 | 0.03 | 58 | 1012.2 |
| 20260504081154 | 7 | 68 | 0.0 | 1.6 | 0.00 | 0.03 | 0.03 | 57 | 1012.2 |
| 20260504081103 | 7 | 68 | 0.0 | 1.6 | 0.00 | 0.03 | 0.03 | 57 | 1012.2 |
| 20260504081026 | 7 | 51 | 0.0 | 1.6 | 0.00 | 0.03 | 0.03 | 58 | 1012.3 |
| 20260504080928 | 7 | 51 | 0.0 | 1.6 | 0.00 | 0.03 | 0.03 | 58 | 1012.2 |
| 20260504080811 | 7 | 41 | 0.0 | 1.6 | 0.00 | 0.03 | 0.03 | 58 | 1012.3 |
| 20260504080715 | 7 | 41 | 0.0 | 1.6 | 0.00 | 0.03 | 0.03 | 59 | 1012.3 |
| 20260504080557 | 7 | 41 | 0.0 | 1.6 | 0.00 | 0.03 | 0.03 | 59 | 1012.3 |
| 20260504080500 | 7 | 36 | 0.0 | 3.2 | 0.00 | 0.03 | 0.03 | 60 | 1012.3 |
| 20260504080407 | 7 | 60 | 0.0 | 0.0 | 0.00 | 0.03 | 0.03 | 59 | 1012.3 |
| 20260504080331 | 7 | 60 | 0.0 | 0.0 | 0.00 | 0.03 | 0.03 | 60 | 1012.3 |
| 20260504080153 | 7 | 60 | 0.0 | 0.0 | 0.00 | 0.03 | 0.03 | 59 | 1012.3 |
| 20260504080129 | 7 | 60 | 0.0 | 0.0 | 0.00 | 0.03 | 0.03 | 59 | 1012.3 |
| 20260504070411 | 6 | 65 | 0.0 | 0.0 | 0.00 | 0.03 | 0.03 | 60 | 1012.1 |
| 20260504070254 | 6 | 65 | 0.0 | 0.0 | 0.00 | 0.03 | 0.03 | 59 | 1012.2 |
| 20260504070157 | 6 | 65 | 0.0 | 0.0 | 0.00 | 0.03 | 0.03 | 60 | 1012.1 |
| 20260504070112 | 6 | 65 | 0.0 | 1.6 | 0.00 | 0.03 | 0.03 | 60 | 1012.1 |
| 20260504060205 | 6 | 82 | 0.0 | 0.0 | 0.00 | 0.03 | 0.03 | 60 | 1012.1 |
| 20260504060119 | 6 | 82 | 0.0 | 0.0 | 0.00 | 0.03 | 0.03 | 60 | 1012.1 |
| 20260504050713 | 5 | 74 | 0.0 | 3.2 | 0.00 | 0.03 | 0.03 | 61 | 1012.2 |
| 20260504050556 | 5 | 74 | 0.0 | 3.2 | 0.00 | 0.03 | 0.03 | 61 | 1012.2 |
| 20260504050502 | 5 | 88 | 0.0 | 4.8 | 0.00 | 0.03 | 0.03 | 61 | 1012.2 |
| 20260504050406 | 5 | 87 | 0.0 | 4.8 | 0.00 | 0.03 | 0.03 | 61 | 1012.2 |
| 20260504050309 | 5 | 88 | 0.0 | 4.8 | 0.00 | 0.03 | 0.03 | 61 | 1012.2 |
| 20260504050213 | 5 | 87 | 0.0 | 4.8 | 0.00 | 0.03 | 0.03 | 61 | 1012.2 |
| 20260504050128 | 5 | 88 | 0.0 | 4.8 | 0.00 | 0.03 | 0.03 | 61 | 1012.2 |
| 20260504050013 | 5 | 88 | 0.0 | 4.8 | 0.00 | 0.03 | 0.03 | 61 | 1012.2 |
| 20260504045900 | 5 | 87 | 1.6 | 4.8 | 0.00 | 0.03 | 0.03 | 61 | 1012.2 |
| 20260504045804 | 5 | 88 | 1.6 | 4.8 | 0.00 | 0.03 | 0.03 | 61 | 1012.2 |
| 20260504045728 | 5 | 84 | 0.0 | 4.8 | 0.00 | 0.03 | 0.03 | 61 | 1012.1 |
| 20260504045631 | 5 | 42 | 0.0 | 1.6 | 0.00 | 0.03 | 0.03 | 61 | 1012.1 |
| 20260504045512 | 5 | 43 | 0.0 | 1.6 | 0.00 | 0.03 | 0.03 | 61 | 1012.1 |
| 20260504045355 | 5 | 42 | 0.0 | 1.6 | 0.00 | 0.03 | 0.03 | 62 | 1012.2 |
| 20260504045259 | 5 | 42 | 0.0 | 1.6 | 0.00 | 0.03 | 0.03 | 62 | 1012.2 |
| 20260504045206 | 5 | 42 | 0.0 | 1.6 | 0.00 | 0.03 | 0.03 | 62 | 1012.2 |
| 20260504045111 | 5 | 43 | 0.0 | 1.6 | 0.00 | 0.03 | 0.03 | 62 | 1012.2 |